Time,TemperatureF,DewpointF,PressureIn,WindDirection,WindDirectionDegrees,WindSpeedMPH,WindSpeedGustMPH,Humidity,HourlyPrecipIn,Conditions,Clouds,dailyrainin,SoftwareType,DateUTC
2013-04-05 00:00:00,37.3,26.2,30.02,SW,220,0.0,0.0,64,0.00,,,0.00,Wunderground v.1.15,2013-04-05 04:00:00,
2013-04-05 00:01:00,37.3,26.2,30.02,SW,220,0.0,0.0,64,0.00,,,0.00,Wunderground v.1.15,2013-04-05 04:01:00,
2013-04-05 00:02:00,37.3,26.2,30.02,SW,220,0.0,0.0,64,0.00,,,0.00,Wunderground v.1.15,2013-04-05 04:02:00,
2013-04-05 00:03:00,37.3,26.2,30.02,SW,220,0.0,0.0,64,0.00,,,0.00,Wunderground v.1.15,2013-04-05 04:03:00,
2013-04-05 00:06:00,37.1,26.0,30.02,SW,220,0.0,0.0,64,0.00,,,0.00,Wunderground v.1.15,2013-04-05 04:06:00,
2013-04-05 00:09:00,37.0,25.9,30.02,SW,220,0.0,0.0,64,0.00,,,0.00,Wunderground v.1.15,2013-04-05 04:09:00,
2013-04-05 00:10:00,37.0,25.9,30.02,SW,220,0.0,0.0,64,0.00,,,0.00,Wunderground v.1.15,2013-04-05 04:10:00,
2013-04-05 00:15:00,36.5,25.8,30.02,SW,220,0.0,0.0,65,0.00,,,0.00,Wunderground v.1.15,2013-04-05 04:15:00,
2013-04-05 00:16:00,36.4,25.7,30.02,SW,220,0.0,0.0,65,0.00,,,0.00,Wunderground v.1.15,2013-04-05 04:16:00,
2013-04-05 00:17:00,36.3,26.0,30.02,SW,220,0.0,0.0,66,0.00,,,0.00,Wunderground v.1.15,2013-04-05 04:17:00,
2013-04-05 00:18:00,36.3,26.0,30.02,SW,220,0.0,0.0,66,0.00,,,0.00,Wunderground v.1.15,2013-04-05 04:18:00,
2013-04-05 00:20:00,36.1,25.8,30.02,SW,220,0.0,0.0,66,0.00,,,0.00,Wunderground v.1.15,2013-04-05 04:20:00,
2013-04-05 00:23:00,36.0,25.7,30.02,SW,220,0.0,0.0,66,0.00,,,0.00,Wunderground v.1.15,2013-04-05 04:23:00,
2013-04-05 00:24:00,36.0,25.7,30.02,SW,220,0.0,0.0,66,0.00,,,0.00,Wunderground v.1.15,2013-04-05 04:24:00,
2013-04-05 00:25:00,35.8,25.5,30.02,SW,220,0.0,0.0,66,0.00,,,0.00,Wunderground v.1.15,2013-04-05 04:25:00,
2013-04-05 00:28:00,35.8,25.2,30.02,SW,220,0.0,0.0,65,0.00,,,0.00,Wunderground v.1.15,2013-04-05 04:28:00,
2013-04-05 00:30:00,35.8,25.2,30.02,SW,220,0.0,0.0,65,0.00,,,0.00,Wunderground v.1.15,2013-04-05 04:30:00,
2013-04-05 00:31:00,35.8,25.2,30.02,SW,220,0.0,0.0,65,0.00,,,0.00,Wunderground v.1.15,2013-04-05 04:31:00,
2013-04-05 00:35:00,35.7,25.4,30.02,SW,220,0.0,0.0,66,0.00,,,0.00,Wunderground v.1.15,2013-04-05 04:35:00,
2013-04-05 00:36:00,35.7,25.8,30.02,SW,220,0.0,0.0,67,0.00,,,0.00,Wunderground v.1.15,2013-04-05 04:36:00,
2013-04-05 00:37:00,35.7,25.8,30.02,SW,220,0.0,0.0,67,0.00,,,0.00,Wunderground v.1.15,2013-04-05 04:37:00,
2013-04-05 00:40:00,35.5,26.0,30.02,SW,220,0.0,0.0,68,0.00,,,0.00,Wunderground v.1.15,2013-04-05 04:40:00,
2013-04-05 00:42:00,35.4,25.9,30.02,SW,220,0.0,0.0,68,0.00,,,0.00,Wunderground v.1.15,2013-04-05 04:42:00,
2013-04-05 00:45:00,35.4,25.9,30.02,SW,220,0.0,0.0,68,0.00,,,0.00,Wunderground v.1.15,2013-04-05 04:45:00,
2013-04-05 00:47:00,35.2,26.0,30.02,SW,220,0.0,0.0,69,0.00,,,0.00,Wunderground v.1.15,2013-04-05 04:47:00,
2013-04-05 00:51:00,35.1,26.3,30.02,SW,220,0.0,0.0,70,0.00,,,0.00,Wunderground v.1.15,2013-04-05 04:51:00,
2013-04-05 00:53:00,35.1,26.3,30.02,SW,220,0.0,0.0,70,0.00,,,0.00,Wunderground v.1.15,2013-04-05 04:53:00,
2013-04-05 00:54:00,35.1,25.9,30.02,SW,220,0.0,0.0,69,0.00,,,0.00,Wunderground v.1.15,2013-04-05 04:54:00,
2013-04-05 00:56:00,34.9,25.8,30.02,SW,220,0.0,0.0,69,0.00,,,0.00,Wunderground v.1.15,2013-04-05 04:56:00,
2013-04-05 01:00:00,34.9,25.8,30.02,SW,220,0.0,0.0,69,0.00,,,0.00,Wunderground v.1.15,2013-04-05 05:00:00,
2013-04-05 01:01:00,34.8,25.7,30.02,SW,220,0.0,0.0,69,0.00,,,0.00,Wunderground v.1.15,2013-04-05 05:01:00,
2013-04-05 01:03:00,34.8,26.0,30.02,SW,220,0.0,0.0,70,0.00,,,0.00,Wunderground v.1.15,2013-04-05 05:03:00,
2013-04-05 01:04:00,34.8,26.0,30.02,SW,220,0.0,0.0,70,0.00,,,0.00,Wunderground v.1.15,2013-04-05 05:04:00,
2013-04-05 01:07:00,34.6,25.8,30.02,SW,220,0.0,0.0,70,0.00,,,0.00,Wunderground v.1.15,2013-04-05 05:07:00,
2013-04-05 01:09:00,34.6,25.8,30.02,SW,220,0.0,0.0,70,0.00,,,0.00,Wunderground v.1.15,2013-04-05 05:09:00,
2013-04-05 01:10:00,34.5,25.7,30.02,SW,220,0.0,0.0,70,0.00,,,0.00,Wunderground v.1.15,2013-04-05 05:10:00,
2013-04-05 01:12:00,34.5,25.7,30.02,SW,220,0.0,0.0,70,0.00,,,0.00,Wunderground v.1.15,2013-04-05 05:12:00,
2013-04-05 01:14:00,34.5,25.7,30.02,SW,220,0.0,0.0,70,0.00,,,0.00,Wunderground v.1.15,2013-04-05 05:14:00,
2013-04-05 01:15:00,34.5,25.7,30.02,SW,220,0.0,0.0,70,0.00,,,0.00,Wunderground v.1.15,2013-04-05 05:15:00,
2013-04-05 01:17:00,34.3,25.5,30.02,SW,220,0.0,0.0,70,0.00,,,0.00,Wunderground v.1.15,2013-04-05 05:17:00,
2013-04-05 01:18:00,34.3,25.5,30.02,SW,220,0.0,0.0,70,0.00,,,0.00,Wunderground v.1.15,2013-04-05 05:18:00,
2013-04-05 01:21:00,34.2,25.4,30.02,SW,220,0.0,0.0,70,0.00,,,0.00,Wunderground v.1.15,2013-04-05 05:21:00,
2013-04-05 01:22:00,34.2,25.4,30.02,SW,220,0.0,0.0,70,0.00,,,0.00,Wunderground v.1.15,2013-04-05 05:22:00,
2013-04-05 01:23:00,34.2,25.8,30.02,SW,220,0.0,0.0,71,0.00,,,0.00,Wunderground v.1.15,2013-04-05 05:23:00,
2013-04-05 01:28:00,34.0,25.2,30.02,SW,220,0.0,0.0,70,0.00,,,0.00,Wunderground v.1.15,2013-04-05 05:28:00,
2013-04-05 01:29:00,34.0,25.2,30.02,SW,220,0.0,0.0,70,0.00,,,0.00,Wunderground v.1.15,2013-04-05 05:29:00,
2013-04-05 01:31:00,33.9,25.1,30.02,SW,220,0.0,0.0,70,0.00,,,0.00,Wunderground v.1.15,2013-04-05 05:31:00,
2013-04-05 01:35:00,33.7,25.3,30.02,SW,220,0.0,0.0,71,0.00,,,0.00,Wunderground v.1.15,2013-04-05 05:35:00,
2013-04-05 01:38:00,33.6,25.2,30.02,SW,220,0.0,0.0,71,0.00,,,0.00,Wunderground v.1.15,2013-04-05 05:38:00,
2013-04-05 01:39:00,33.6,25.2,30.02,SW,220,0.0,0.0,71,0.00,,,0.00,Wunderground v.1.15,2013-04-05 05:39:00,
2013-04-05 01:40:00,33.6,25.2,30.02,SW,220,0.0,0.0,71,0.00,,,0.00,Wunderground v.1.15,2013-04-05 05:40:00,
2013-04-05 01:43:00,33.4,25.3,30.02,SW,220,0.0,0.0,72,0.00,,,0.00,Wunderground v.1.15,2013-04-05 05:43:00,
2013-04-05 01:45:00,33.4,25.3,30.02,SW,220,0.0,0.0,72,0.00,,,0.00,Wunderground v.1.15,2013-04-05 05:45:00,
2013-04-05 01:46:00,33.4,25.3,30.02,SW,220,0.0,0.0,72,0.00,,,0.00,Wunderground v.1.15,2013-04-05 05:46:00,
2013-04-05 01:49:00,33.3,25.2,30.02,SW,220,0.0,0.0,72,0.00,,,0.00,Wunderground v.1.15,2013-04-05 05:49:00,
2013-04-05 01:50:00,33.3,25.2,30.02,SW,220,0.0,0.0,72,0.00,,,0.00,Wunderground v.1.15,2013-04-05 05:50:00,
2013-04-05 01:51:00,33.3,25.2,30.02,SW,220,0.0,0.0,72,0.00,,,0.00,Wunderground v.1.15,2013-04-05 05:51:00,
2013-04-05 01:53:00,33.2,25.1,30.02,SW,220,0.0,0.0,72,0.00,,,0.00,Wunderground v.1.15,2013-04-05 05:53:00,
2013-04-05 01:56:00,33.0,25.3,30.02,SW,220,0.0,0.0,73,0.00,,,0.00,Wunderground v.1.15,2013-04-05 05:56:00,
2013-04-05 01:58:00,32.9,25.2,30.02,SW,220,0.0,0.0,73,0.00,,,0.00,Wunderground v.1.15,2013-04-05 05:58:00,
2013-04-05 01:59:00,32.9,25.2,30.02,SW,220,0.0,0.0,73,0.00,,,0.00,Wunderground v.1.15,2013-04-05 05:59:00,
2013-04-05 02:01:00,32.6,24.9,30.02,SW,220,0.0,0.0,73,0.00,,,0.00,Wunderground v.1.15,2013-04-05 06:01:00,
2013-04-05 02:03:00,32.4,25.0,30.02,SW,220,0.0,0.0,74,0.00,,,0.00,Wunderground v.1.15,2013-04-05 06:03:00,
2013-04-05 02:04:00,32.3,24.9,30.02,SW,220,0.0,0.0,74,0.00,,,0.00,Wunderground v.1.15,2013-04-05 06:04:00,
2013-04-05 02:06:00,32.3,24.9,30.02,SW,220,0.0,0.0,74,0.00,,,0.00,Wunderground v.1.15,2013-04-05 06:06:00,
2013-04-05 02:10:00,32.1,25.1,30.02,SW,220,0.0,0.0,75,0.00,,,0.00,Wunderground v.1.15,2013-04-05 06:10:00,
2013-04-05 02:12:00,32.0,25.0,30.02,SW,220,0.0,0.0,75,0.00,,,0.00,Wunderground v.1.15,2013-04-05 06:12:00,
2013-04-05 02:16:00,31.8,24.8,30.02,SW,220,0.0,0.0,75,0.00,,,0.00,Wunderground v.1.15,2013-04-05 06:16:00,
2013-04-05 02:17:00,31.8,24.8,30.02,SW,220,0.0,0.0,75,0.00,,,0.00,Wunderground v.1.15,2013-04-05 06:17:00,
2013-04-05 02:18:00,31.8,24.8,30.02,SW,220,0.0,0.0,75,0.00,,,0.00,Wunderground v.1.15,2013-04-05 06:18:00,
2013-04-05 02:20:00,31.8,24.8,30.02,SW,220,0.0,0.0,75,0.00,,,0.00,Wunderground v.1.15,2013-04-05 06:20:00,
2013-04-05 02:24:00,31.8,24.8,30.02,SW,220,0.0,0.0,75,0.00,,,0.00,Wunderground v.1.15,2013-04-05 06:24:00,
2013-04-05 02:27:00,31.7,24.7,30.02,SW,220,0.0,0.0,75,0.00,,,0.00,Wunderground v.1.15,2013-04-05 06:27:00,
2013-04-05 02:29:00,31.7,24.7,30.02,SW,220,0.0,0.0,75,0.00,,,0.00,Wunderground v.1.15,2013-04-05 06:29:00,
2013-04-05 02:30:00,31.7,24.7,30.02,SW,220,0.0,0.0,75,0.00,,,0.00,Wunderground v.1.15,2013-04-05 06:30:00,
2013-04-05 02:33:00,31.7,24.7,30.02,SW,220,0.0,0.0,75,0.00,,,0.00,Wunderground v.1.15,2013-04-05 06:33:00,
2013-04-05 02:35:00,31.5,24.5,30.02,SW,220,0.0,0.0,75,0.00,,,0.00,Wunderground v.1.15,2013-04-05 06:35:00,
2013-04-05 02:36:00,31.5,24.5,30.02,SW,220,0.0,0.0,75,0.00,,,0.00,Wunderground v.1.15,2013-04-05 06:36:00,
2013-04-05 02:37:00,31.5,24.5,30.02,SW,220,0.0,0.0,75,0.00,,,0.00,Wunderground v.1.15,2013-04-05 06:37:00,
2013-04-05 02:39:00,31.5,24.5,30.02,SW,220,0.0,0.0,75,0.00,,,0.00,Wunderground v.1.15,2013-04-05 06:39:00,
2013-04-05 02:42:00,31.4,24.4,30.02,SW,220,0.0,0.0,75,0.00,,,0.00,Wunderground v.1.15,2013-04-05 06:42:00,
2013-04-05 02:43:00,31.4,24.4,30.02,SW,220,0.0,0.0,75,0.00,,,0.00,Wunderground v.1.15,2013-04-05 06:43:00,
2013-04-05 02:46:00,31.4,24.4,30.02,SW,220,0.0,0.0,75,0.00,,,0.00,Wunderground v.1.15,2013-04-05 06:46:00,
2013-04-05 02:47:00,31.4,24.4,30.02,SW,220,0.0,0.0,75,0.00,,,0.00,Wunderground v.1.15,2013-04-05 06:47:00,
2013-04-05 02:48:00,31.4,24.4,30.02,SW,220,0.0,0.0,75,0.00,,,0.00,Wunderground v.1.15,2013-04-05 06:48:00,
2013-04-05 02:52:00,31.2,24.2,30.02,SW,220,0.0,0.0,75,0.00,,,0.00,Wunderground v.1.15,2013-04-05 06:52:00,
2013-04-05 02:53:00,31.2,24.2,30.02,SW,220,0.0,0.0,75,0.00,,,0.00,Wunderground v.1.15,2013-04-05 06:53:00,
2013-04-05 02:55:00,31.2,24.2,30.02,SW,220,0.0,0.0,75,0.00,,,0.00,Wunderground v.1.15,2013-04-05 06:55:00,
2013-04-05 02:56:00,31.1,24.1,30.02,SW,220,0.0,0.0,75,0.00,,,0.00,Wunderground v.1.15,2013-04-05 06:56:00,
2013-04-05 02:59:00,31.1,24.1,30.02,SW,220,0.0,0.0,75,0.00,,,0.00,Wunderground v.1.15,2013-04-05 06:59:00,
2013-04-05 03:01:00,31.1,24.1,30.02,SW,220,0.0,0.0,75,0.00,,,0.00,Wunderground v.1.15,2013-04-05 07:01:00,
2013-04-05 03:03:00,30.9,24.2,30.02,SW,220,0.0,0.0,76,0.00,,,0.00,Wunderground v.1.15,2013-04-05 07:03:00,
2013-04-05 03:05:00,30.9,24.2,30.02,SW,220,0.0,0.0,76,0.00,,,0.00,Wunderground v.1.15,2013-04-05 07:05:00,
2013-04-05 03:06:00,30.9,24.2,30.02,SW,220,0.0,0.0,76,0.00,,,0.00,Wunderground v.1.15,2013-04-05 07:06:00,
2013-04-05 03:07:00,30.8,23.8,30.02,SW,220,0.0,0.0,75,0.00,,,0.00,Wunderground v.1.15,2013-04-05 07:07:00,
2013-04-05 03:09:00,30.8,23.8,30.02,SW,220,0.0,0.0,75,0.00,,,0.00,Wunderground v.1.15,2013-04-05 07:09:00,
2013-04-05 03:13:00,30.6,23.9,30.02,SW,220,0.0,0.0,76,0.00,,,0.00,Wunderground v.1.15,2013-04-05 07:13:00,
2013-04-05 03:14:00,30.6,23.9,30.02,SW,220,0.0,0.0,76,0.00,,,0.00,Wunderground v.1.15,2013-04-05 07:14:00,
2013-04-05 03:17:00,30.6,23.9,30.02,SW,220,0.0,0.0,76,0.00,,,0.00,Wunderground v.1.15,2013-04-05 07:17:00,
2013-04-05 03:18:00,30.5,23.8,30.02,SW,220,0.0,0.0,76,0.00,,,0.00,Wunderground v.1.15,2013-04-05 07:18:00,
2013-04-05 03:20:00,30.5,23.8,30.02,SW,220,0.0,0.0,76,0.00,,,0.00,Wunderground v.1.15,2013-04-05 07:20:00,
2013-04-05 03:23:00,30.3,23.6,30.02,SW,220,0.0,0.0,76,0.00,,,0.00,Wunderground v.1.15,2013-04-05 07:23:00,
2013-04-05 03:24:00,30.3,23.6,30.02,SW,220,0.0,0.0,76,0.00,,,0.00,Wunderground v.1.15,2013-04-05 07:24:00,
2013-04-05 03:25:00,30.3,23.6,30.02,SW,220,0.0,0.0,76,0.00,,,0.00,Wunderground v.1.15,2013-04-05 07:25:00,
2013-04-05 03:28:00,30.3,23.6,30.02,SW,220,0.0,0.0,76,0.00,,,0.00,Wunderground v.1.15,2013-04-05 07:28:00,
2013-04-05 03:30:00,30.3,23.6,30.02,SW,220,0.0,0.0,76,0.00,,,0.00,Wunderground v.1.15,2013-04-05 07:30:00,
2013-04-05 03:31:00,30.3,24.0,30.02,SW,220,0.0,0.0,77,0.00,,,0.00,Wunderground v.1.15,2013-04-05 07:31:00,
2013-04-05 03:32:00,30.2,23.9,30.02,SW,220,0.0,0.0,77,0.00,,,0.00,Wunderground v.1.15,2013-04-05 07:32:00,
2013-04-05 03:35:00,30.2,23.9,30.02,SW,220,0.0,0.0,77,0.00,,,0.00,Wunderground v.1.15,2013-04-05 07:35:00,
2013-04-05 03:37:00,30.2,23.9,30.02,SW,220,0.0,0.0,77,0.00,,,0.00,Wunderground v.1.15,2013-04-05 07:37:00,
2013-04-05 03:38:00,30.2,23.9,30.02,SW,220,0.0,0.0,77,0.00,,,0.00,Wunderground v.1.15,2013-04-05 07:38:00,
2013-04-05 03:43:00,30.2,23.9,30.02,SW,220,0.0,0.0,77,0.00,,,0.00,Wunderground v.1.15,2013-04-05 07:43:00,
2013-04-05 03:46:00,30.2,24.2,30.03,SW,220,0.0,0.0,78,0.00,,,0.00,Wunderground v.1.15,2013-04-05 07:46:00,
2013-04-05 03:47:00,30.2,24.2,30.03,SW,220,0.0,0.0,78,0.00,,,0.00,Wunderground v.1.15,2013-04-05 07:47:00,
2013-04-05 03:49:00,30.2,24.2,30.03,SW,220,0.0,0.0,78,0.00,,,0.00,Wunderground v.1.15,2013-04-05 07:49:00,
2013-04-05 03:53:00,30.2,24.5,30.03,SW,220,0.0,0.0,79,0.00,,,0.00,Wunderground v.1.15,2013-04-05 07:53:00,
2013-04-05 03:56:00,30.2,24.5,30.03,SW,220,0.0,0.0,79,0.00,,,0.00,Wunderground v.1.15,2013-04-05 07:56:00,
2013-04-05 03:57:00,30.2,24.5,30.03,SW,220,0.0,0.0,79,0.00,,,0.00,Wunderground v.1.15,2013-04-05 07:57:00,
2013-04-05 03:59:00,30.0,24.3,30.03,SW,220,0.0,0.0,79,0.00,,,0.00,Wunderground v.1.15,2013-04-05 07:59:00,
2013-04-05 04:00:00,30.0,24.3,30.03,SW,220,0.0,0.0,79,0.00,,,0.00,Wunderground v.1.15,2013-04-05 08:00:00,
2013-04-05 04:02:00,30.0,24.3,30.03,SW,220,0.0,0.0,79,0.00,,,0.00,Wunderground v.1.15,2013-04-05 08:02:00,
2013-04-05 04:04:00,30.0,24.3,30.03,SW,220,0.0,0.0,79,0.00,,,0.00,Wunderground v.1.15,2013-04-05 08:04:00,
2013-04-05 04:07:00,30.0,24.3,30.03,SW,220,0.0,0.0,79,0.00,,,0.00,Wunderground v.1.15,2013-04-05 08:07:00,
2013-04-05 04:11:00,29.9,24.2,30.03,SW,220,0.0,0.0,79,0.00,,,0.00,Wunderground v.1.15,2013-04-05 08:11:00,
2013-04-05 04:12:00,29.9,24.2,30.03,SW,220,0.0,0.0,79,0.00,,,0.00,Wunderground v.1.15,2013-04-05 08:12:00,
2013-04-05 04:13:00,29.9,24.2,30.03,SW,220,0.0,0.0,79,0.00,,,0.00,Wunderground v.1.15,2013-04-05 08:13:00,
2013-04-05 04:16:00,29.8,24.1,30.03,SW,220,0.0,0.0,79,0.00,,,0.00,Wunderground v.1.15,2013-04-05 08:16:00,
2013-04-05 04:18:00,29.8,24.1,30.03,SW,220,0.0,0.0,79,0.00,,,0.00,Wunderground v.1.15,2013-04-05 08:18:00,
2013-04-05 04:20:00,29.8,24.1,30.03,SW,220,0.0,0.0,79,0.00,,,0.00,Wunderground v.1.15,2013-04-05 08:20:00,
2013-04-05 04:22:00,29.8,24.1,30.03,SW,220,0.0,0.0,79,0.00,,,0.00,Wunderground v.1.15,2013-04-05 08:22:00,
2013-04-05 04:25:00,29.8,24.1,30.03,SW,220,0.0,0.0,79,0.00,,,0.00,Wunderground v.1.15,2013-04-05 08:25:00,
2013-04-05 04:28:00,29.6,23.9,30.03,SW,220,0.0,0.0,79,0.00,,,0.00,Wunderground v.1.15,2013-04-05 08:28:00,
2013-04-05 04:32:00,29.6,23.9,30.03,SW,220,0.0,0.0,79,0.00,,,0.00,Wunderground v.1.15,2013-04-05 08:32:00,
2013-04-05 04:34:00,29.5,23.8,30.03,SW,220,0.0,0.0,79,0.00,,,0.00,Wunderground v.1.15,2013-04-05 08:34:00,
2013-04-05 04:35:00,29.5,23.8,30.03,SW,220,0.0,0.0,79,0.00,,,0.00,Wunderground v.1.15,2013-04-05 08:35:00,
2013-04-05 04:37:00,29.5,23.8,30.03,SW,220,0.0,0.0,79,0.00,,,0.00,Wunderground v.1.15,2013-04-05 08:37:00,
2013-04-05 04:38:00,29.5,23.8,30.03,SW,220,0.0,0.0,79,0.00,,,0.00,Wunderground v.1.15,2013-04-05 08:38:00,
2013-04-05 04:42:00,29.5,23.8,30.03,SW,220,0.0,0.0,79,0.00,,,0.00,Wunderground v.1.15,2013-04-05 08:42:00,
2013-04-05 04:43:00,29.5,23.8,30.03,SW,220,0.0,0.0,79,0.00,,,0.00,Wunderground v.1.15,2013-04-05 08:43:00,
2013-04-05 04:44:00,29.3,23.6,30.03,SW,220,0.0,0.0,79,0.00,,,0.00,Wunderground v.1.15,2013-04-05 08:44:00,
2013-04-05 04:45:00,29.3,23.6,30.03,SW,220,0.0,0.0,79,0.00,,,0.00,Wunderground v.1.15,2013-04-05 08:45:00,
2013-04-05 04:49:00,29.3,23.6,30.03,SW,220,0.0,0.0,79,0.00,,,0.00,Wunderground v.1.15,2013-04-05 08:49:00,
2013-04-05 04:53:00,29.3,23.6,30.03,SW,220,0.0,0.0,79,0.00,,,0.00,Wunderground v.1.15,2013-04-05 08:53:00,
2013-04-05 04:55:00,29.3,23.6,30.03,SW,220,0.0,0.0,79,0.00,,,0.00,Wunderground v.1.15,2013-04-05 08:55:00,
2013-04-05 04:56:00,29.2,23.5,30.03,SW,220,0.0,0.0,79,0.00,,,0.00,Wunderground v.1.15,2013-04-05 08:56:00,
2013-04-05 04:58:00,29.2,23.5,30.03,SW,220,0.0,0.0,79,0.00,,,0.00,Wunderground v.1.15,2013-04-05 08:58:00,
2013-04-05 04:59:00,29.2,23.5,30.03,SW,220,0.0,0.0,79,0.00,,,0.00,Wunderground v.1.15,2013-04-05 08:59:00,
2013-04-05 05:01:00,29.2,23.5,30.04,SW,220,0.0,0.0,79,0.00,,,0.00,Wunderground v.1.15,2013-04-05 09:01:00,
2013-04-05 05:02:00,29.2,23.5,30.04,SW,220,0.0,0.0,79,0.00,,,0.00,Wunderground v.1.15,2013-04-05 09:02:00,
2013-04-05 05:05:00,29.0,23.6,30.04,SW,220,0.0,0.0,80,0.00,,,0.00,Wunderground v.1.15,2013-04-05 09:05:00,
2013-04-05 05:07:00,29.0,23.3,30.04,SW,220,0.0,0.0,79,0.00,,,0.00,Wunderground v.1.15,2013-04-05 09:07:00,
2013-04-05 05:08:00,29.0,23.3,30.04,SW,220,0.0,0.0,79,0.00,,,0.00,Wunderground v.1.15,2013-04-05 09:08:00,
2013-04-05 05:10:00,29.0,23.6,30.04,SW,220,0.0,0.0,80,0.00,,,0.00,Wunderground v.1.15,2013-04-05 09:10:00,
2013-04-05 05:13:00,29.0,23.6,30.04,SW,220,0.0,0.0,80,0.00,,,0.00,Wunderground v.1.15,2013-04-05 09:13:00,
2013-04-05 05:15:00,28.9,23.5,30.05,SW,220,0.0,0.0,80,0.00,,,0.00,Wunderground v.1.15,2013-04-05 09:15:00,
2013-04-05 05:17:00,28.9,23.5,30.05,SW,220,0.0,0.0,80,0.00,,,0.00,Wunderground v.1.15,2013-04-05 09:17:00,
2013-04-05 05:19:00,28.9,23.5,30.05,SW,220,0.0,0.0,80,0.00,,,0.00,Wunderground v.1.15,2013-04-05 09:19:00,
2013-04-05 05:22:00,28.9,23.5,30.05,SW,220,0.0,0.0,80,0.00,,,0.00,Wunderground v.1.15,2013-04-05 09:22:00,
2013-04-05 05:23:00,28.9,23.5,30.05,SW,220,0.0,0.0,80,0.00,,,0.00,Wunderground v.1.15,2013-04-05 09:23:00,
2013-04-05 05:24:00,28.9,23.5,30.05,SW,220,0.0,0.0,80,0.00,,,0.00,Wunderground v.1.15,2013-04-05 09:24:00,
2013-04-05 05:28:00,28.9,23.5,30.05,SW,220,0.0,0.0,80,0.00,,,0.00,Wunderground v.1.15,2013-04-05 09:28:00,
2013-04-05 05:30:00,28.9,23.5,30.05,SW,220,0.0,0.0,80,0.00,,,0.00,Wunderground v.1.15,2013-04-05 09:30:00,
2013-04-05 05:32:00,28.9,23.8,30.05,SW,220,0.0,0.0,81,0.00,,,0.00,Wunderground v.1.15,2013-04-05 09:32:00,
2013-04-05 05:34:00,28.9,23.8,30.05,SW,220,0.0,0.0,81,0.00,,,0.00,Wunderground v.1.15,2013-04-05 09:34:00,
2013-04-05 05:36:00,28.9,23.8,30.05,SW,220,0.0,0.0,81,0.00,,,0.00,Wunderground v.1.15,2013-04-05 09:36:00,
2013-04-05 05:41:00,28.9,23.8,30.05,SW,220,0.0,0.0,81,0.00,,,0.00,Wunderground v.1.15,2013-04-05 09:41:00,
2013-04-05 05:43:00,28.9,23.8,30.05,SW,220,0.0,0.0,81,0.00,,,0.00,Wunderground v.1.15,2013-04-05 09:43:00,
2013-04-05 05:45:00,28.9,23.8,30.05,SW,220,0.0,0.0,81,0.00,,,0.00,Wunderground v.1.15,2013-04-05 09:45:00,
2013-04-05 05:46:00,28.9,23.8,30.05,SW,220,0.0,0.0,81,0.00,,,0.00,Wunderground v.1.15,2013-04-05 09:46:00,
2013-04-05 05:48:00,28.9,23.8,30.05,SW,220,0.0,0.0,81,0.00,,,0.00,Wunderground v.1.15,2013-04-05 09:48:00,
2013-04-05 05:51:00,28.9,23.5,30.05,SW,220,0.0,0.0,80,0.00,,,0.00,Wunderground v.1.15,2013-04-05 09:51:00,
2013-04-05 05:52:00,28.9,23.5,30.05,SW,220,0.0,0.0,80,0.00,,,0.00,Wunderground v.1.15,2013-04-05 09:52:00,
2013-04-05 05:53:00,28.9,23.5,30.05,SW,220,0.0,0.0,80,0.00,,,0.00,Wunderground v.1.15,2013-04-05 09:53:00,
2013-04-05 05:55:00,28.9,23.5,30.05,SW,220,0.0,0.0,80,0.00,,,0.00,Wunderground v.1.15,2013-04-05 09:55:00,
2013-04-05 06:00:00,28.7,23.3,30.06,SW,220,0.0,0.0,80,0.00,,,0.00,Wunderground v.1.15,2013-04-05 10:00:00,
2013-04-05 06:01:00,28.7,23.3,30.06,SW,220,0.0,0.0,80,0.00,,,0.00,Wunderground v.1.15,2013-04-05 10:01:00,
2013-04-05 06:03:00,28.7,23.3,30.06,SW,220,0.0,0.0,80,0.00,,,0.00,Wunderground v.1.15,2013-04-05 10:03:00,
2013-04-05 06:04:00,28.6,23.2,30.06,SW,220,0.0,0.0,80,0.00,,,0.00,Wunderground v.1.15,2013-04-05 10:04:00,
2013-04-05 06:08:00,28.7,23.6,30.06,SW,220,0.0,0.0,81,0.00,,,0.00,Wunderground v.1.15,2013-04-05 10:08:00,
2013-04-05 06:09:00,28.7,23.6,30.06,SW,220,0.0,0.0,81,0.00,,,0.00,Wunderground v.1.15,2013-04-05 10:09:00,
2013-04-05 06:11:00,28.7,23.6,30.06,SW,220,0.0,0.0,81,0.00,,,0.00,Wunderground v.1.15,2013-04-05 10:11:00,
2013-04-05 06:13:00,28.7,23.6,30.06,SW,220,0.0,0.0,81,0.00,,,0.00,Wunderground v.1.15,2013-04-05 10:13:00,
2013-04-05 06:16:00,28.7,23.6,30.06,SW,220,0.0,0.0,81,0.00,,,0.00,Wunderground v.1.15,2013-04-05 10:16:00,
2013-04-05 06:19:00,28.7,23.9,30.06,SW,220,0.0,0.0,82,0.00,,,0.00,Wunderground v.1.15,2013-04-05 10:19:00,
2013-04-05 06:20:00,28.7,23.9,30.06,SW,220,0.0,0.0,82,0.00,,,0.00,Wunderground v.1.15,2013-04-05 10:20:00,
2013-04-05 06:22:00,28.7,23.9,30.06,SW,220,0.0,0.0,82,0.00,,,0.00,Wunderground v.1.15,2013-04-05 10:22:00,
2013-04-05 06:25:00,28.7,23.9,30.06,SW,220,0.0,0.0,82,0.00,,,0.00,Wunderground v.1.15,2013-04-05 10:25:00,
2013-04-05 06:27:00,28.7,23.9,30.06,SW,220,0.0,0.0,82,0.00,,,0.00,Wunderground v.1.15,2013-04-05 10:27:00,
2013-04-05 06:28:00,28.7,23.9,30.06,SW,220,0.0,0.0,82,0.00,,,0.00,Wunderground v.1.15,2013-04-05 10:28:00,
2013-04-05 06:31:00,28.7,23.6,30.06,SW,220,0.0,0.0,81,0.00,,,0.00,Wunderground v.1.15,2013-04-05 10:31:00,
2013-04-05 06:33:00,28.7,23.6,30.06,SW,220,0.0,0.0,81,0.00,,,0.00,Wunderground v.1.15,2013-04-05 10:33:00,
2013-04-05 06:34:00,28.7,23.6,30.06,SW,220,0.0,0.0,81,0.00,,,0.00,Wunderground v.1.15,2013-04-05 10:34:00,
2013-04-05 06:35:00,28.6,23.5,30.06,SW,220,0.0,0.0,81,0.00,,,0.00,Wunderground v.1.15,2013-04-05 10:35:00,
2013-04-05 06:39:00,28.6,23.5,30.06,SW,220,0.0,0.0,81,0.00,,,0.00,Wunderground v.1.15,2013-04-05 10:39:00,
2013-04-05 06:40:00,28.6,23.5,30.06,SW,220,0.0,0.0,81,0.00,,,0.00,Wunderground v.1.15,2013-04-05 10:40:00,
2013-04-05 06:42:00,28.6,23.5,30.06,SW,220,0.0,0.0,81,0.00,,,0.00,Wunderground v.1.15,2013-04-05 10:42:00,
2013-04-05 06:46:00,28.6,23.5,30.07,SW,220,0.0,0.0,81,0.00,,,0.00,Wunderground v.1.15,2013-04-05 10:46:00,
2013-04-05 06:47:00,28.6,23.5,30.07,SW,220,0.0,0.0,81,0.00,,,0.00,Wunderground v.1.15,2013-04-05 10:47:00,
2013-04-05 06:48:00,28.6,23.5,30.07,SW,220,0.0,0.0,81,0.00,,,0.00,Wunderground v.1.15,2013-04-05 10:48:00,
2013-04-05 06:53:00,28.4,23.3,30.07,SW,220,0.0,0.0,81,0.00,,,0.00,Wunderground v.1.15,2013-04-05 10:53:00,
2013-04-05 06:54:00,28.4,23.3,30.07,SW,220,0.0,0.0,81,0.00,,,0.00,Wunderground v.1.15,2013-04-05 10:54:00,
2013-04-05 06:56:00,28.4,23.6,30.07,SW,220,0.0,0.0,82,0.00,,,0.00,Wunderground v.1.15,2013-04-05 10:56:00,
2013-04-05 06:57:00,28.4,23.6,30.07,SW,220,0.0,0.0,82,0.00,,,0.00,Wunderground v.1.15,2013-04-05 10:57:00,
2013-04-05 07:00:00,28.4,23.6,30.07,SW,220,0.0,0.0,82,0.00,,,0.00,Wunderground v.1.15,2013-04-05 11:00:00,
2013-04-05 07:02:00,28.4,23.6,30.07,SW,220,0.0,0.0,82,0.00,,,0.00,Wunderground v.1.15,2013-04-05 11:02:00,
2013-04-05 07:03:00,28.4,23.6,30.07,SW,220,0.0,0.0,82,0.00,,,0.00,Wunderground v.1.15,2013-04-05 11:03:00,
2013-04-05 07:04:00,28.4,23.6,30.07,SW,220,0.0,0.0,82,0.00,,,0.00,Wunderground v.1.15,2013-04-05 11:04:00,
2013-04-05 07:06:00,28.3,23.5,30.07,SW,220,0.0,0.0,82,0.00,,,0.00,Wunderground v.1.15,2013-04-05 11:06:00,
2013-04-05 07:08:00,28.3,23.5,30.07,SW,220,0.0,0.0,82,0.00,,,0.00,Wunderground v.1.15,2013-04-05 11:08:00,
2013-04-05 07:10:00,28.3,23.5,30.07,SW,220,0.0,0.0,82,0.00,,,0.00,Wunderground v.1.15,2013-04-05 11:10:00,
2013-04-05 07:12:00,28.3,23.5,30.07,SW,220,0.0,0.0,82,0.00,,,0.00,Wunderground v.1.15,2013-04-05 11:12:00,
2013-04-05 07:15:00,28.1,23.3,30.08,SW,220,0.0,0.0,82,0.00,,,0.00,Wunderground v.1.15,2013-04-05 11:15:00,
2013-04-05 07:18:00,28.3,23.5,30.08,SW,220,0.0,0.0,82,0.00,,,0.00,Wunderground v.1.15,2013-04-05 11:18:00,
2013-04-05 07:19:00,28.3,23.5,30.08,SW,220,0.0,0.0,82,0.00,,,0.00,Wunderground v.1.15,2013-04-05 11:19:00,
2013-04-05 07:22:00,28.3,23.5,30.08,SW,220,0.0,0.0,82,0.00,,,0.00,Wunderground v.1.15,2013-04-05 11:22:00,
2013-04-05 07:25:00,28.3,23.5,30.08,SW,220,0.0,0.0,82,0.00,,,0.00,Wunderground v.1.15,2013-04-05 11:25:00,
2013-04-05 07:27:00,28.3,23.5,30.08,SW,220,0.0,0.0,82,0.00,,,0.00,Wunderground v.1.15,2013-04-05 11:27:00,
2013-04-05 07:29:00,28.1,23.3,30.08,SW,220,0.0,0.0,82,0.00,,,0.00,Wunderground v.1.15,2013-04-05 11:29:00,
2013-04-05 07:31:00,28.1,23.6,30.08,SW,220,0.0,0.0,83,0.00,,,0.00,Wunderground v.1.15,2013-04-05 11:31:00,
2013-04-05 07:32:00,28.1,23.6,30.08,SW,220,0.0,0.0,83,0.00,,,0.00,Wunderground v.1.15,2013-04-05 11:32:00,
2013-04-05 07:33:00,28.1,23.6,30.08,SW,220,0.0,0.0,83,0.00,,,0.00,Wunderground v.1.15,2013-04-05 11:33:00,
2013-04-05 07:34:00,28.1,23.6,30.08,SW,220,0.0,0.0,83,0.00,,,0.00,Wunderground v.1.15,2013-04-05 11:34:00,
2013-04-05 07:37:00,28.1,23.6,30.08,SW,220,0.0,0.0,83,0.00,,,0.00,Wunderground v.1.15,2013-04-05 11:37:00,
2013-04-05 07:38:00,28.1,23.6,30.08,SW,220,0.0,0.0,83,0.00,,,0.00,Wunderground v.1.15,2013-04-05 11:38:00,
2013-04-05 07:39:00,28.1,23.6,30.08,SW,220,0.0,0.0,83,0.00,,,0.00,Wunderground v.1.15,2013-04-05 11:39:00,
2013-04-05 07:43:00,28.1,23.6,30.08,SW,220,0.0,0.0,83,0.00,,,0.00,Wunderground v.1.15,2013-04-05 11:43:00,
2013-04-05 07:44:00,28.3,23.8,30.08,SW,220,0.0,0.0,83,0.00,,,0.00,Wunderground v.1.15,2013-04-05 11:44:00,
2013-04-05 07:45:00,28.3,23.8,30.08,SW,220,0.0,0.0,83,0.00,,,0.00,Wunderground v.1.15,2013-04-05 11:45:00,
2013-04-05 07:50:00,28.4,23.9,30.08,SW,220,0.0,0.0,83,0.00,,,0.00,Wunderground v.1.15,2013-04-05 11:50:00,
2013-04-05 07:51:00,28.4,23.9,30.08,SW,220,0.0,0.0,83,0.00,,,0.00,Wunderground v.1.15,2013-04-05 11:51:00,
2013-04-05 07:55:00,28.7,24.2,30.08,SW,220,0.0,0.0,83,0.00,,,0.00,Wunderground v.1.15,2013-04-05 11:55:00,
2013-04-05 07:57:00,28.7,24.2,30.08,SW,220,0.0,0.0,83,0.00,,,0.00,Wunderground v.1.15,2013-04-05 11:57:00,
2013-04-05 07:58:00,28.7,24.2,30.08,SW,220,0.0,0.0,83,0.00,,,0.00,Wunderground v.1.15,2013-04-05 11:58:00,
2013-04-05 08:00:00,28.9,24.4,30.08,SW,220,0.0,0.0,83,0.00,,,0.00,Wunderground v.1.15,2013-04-05 12:00:00,
2013-04-05 08:02:00,29.0,24.8,30.08,SW,220,0.0,0.0,84,0.00,,,0.00,Wunderground v.1.15,2013-04-05 12:02:00,
2013-04-05 08:07:00,29.2,25.0,30.08,SW,220,0.0,0.0,84,0.00,,,0.00,Wunderground v.1.15,2013-04-05 12:07:00,
2013-04-05 08:08:00,29.3,25.1,30.08,SW,220,0.0,0.0,84,0.00,,,0.00,Wunderground v.1.15,2013-04-05 12:08:00,
2013-04-05 08:09:00,29.3,25.1,30.08,SW,220,0.0,0.0,84,0.00,,,0.00,Wunderground v.1.15,2013-04-05 12:09:00,
2013-04-05 08:13:00,29.5,25.3,30.08,SW,220,0.0,0.0,84,0.00,,,0.00,Wunderground v.1.15,2013-04-05 12:13:00,
2013-04-05 08:14:00,29.5,25.3,30.08,SW,220,0.0,0.0,84,0.00,,,0.00,Wunderground v.1.15,2013-04-05 12:14:00,
2013-04-05 08:15:00,29.6,25.4,30.09,SW,220,0.0,0.0,84,0.00,,,0.00,Wunderground v.1.15,2013-04-05 12:15:00,
2013-04-05 08:17:00,29.8,25.6,30.09,SW,220,0.0,0.0,84,0.00,,,0.00,Wunderground v.1.15,2013-04-05 12:17:00,
2013-04-05 08:20:00,30.0,25.8,30.09,SW,220,0.0,0.0,84,0.00,,,0.00,Wunderground v.1.15,2013-04-05 12:20:00,
2013-04-05 08:21:00,30.2,25.9,30.09,SW,220,0.0,0.0,84,0.00,,,0.00,Wunderground v.1.15,2013-04-05 12:21:00,
2013-04-05 08:23:00,30.3,26.0,30.09,SW,220,0.0,0.0,84,0.00,,,0.00,Wunderground v.1.15,2013-04-05 12:23:00,
2013-04-05 08:26:00,30.6,26.3,30.09,SW,220,0.0,0.0,84,0.00,,,0.00,Wunderground v.1.15,2013-04-05 12:26:00,
2013-04-05 08:28:00,30.8,26.5,30.09,SW,220,0.0,0.0,84,0.00,,,0.00,Wunderground v.1.15,2013-04-05 12:28:00,
2013-04-05 08:29:00,30.8,26.5,30.09,SW,220,0.0,0.0,84,0.00,,,0.00,Wunderground v.1.15,2013-04-05 12:29:00,
2013-04-05 08:32:00,31.1,26.8,30.10,SW,220,0.0,0.0,84,0.00,,,0.00,Wunderground v.1.15,2013-04-05 12:32:00,
2013-04-05 08:34:00,31.2,26.9,30.10,SW,220,0.0,0.0,84,0.00,,,0.00,Wunderground v.1.15,2013-04-05 12:34:00,
2013-04-05 08:35:00,31.4,26.8,30.10,SW,220,0.0,0.0,83,0.00,,,0.00,Wunderground v.1.15,2013-04-05 12:35:00,
2013-04-05 08:38:00,31.5,26.9,30.10,SW,220,0.0,0.0,83,0.00,,,0.00,Wunderground v.1.15,2013-04-05 12:38:00,
2013-04-05 08:40:00,31.7,27.1,30.10,SW,220,0.0,0.0,83,0.00,,,0.00,Wunderground v.1.15,2013-04-05 12:40:00,
2013-04-05 08:41:00,31.8,26.9,30.10,SW,220,0.0,0.0,82,0.00,,,0.00,Wunderground v.1.15,2013-04-05 12:41:00,
2013-04-05 08:45:00,32.3,27.4,30.10,SW,220,0.0,0.0,82,0.00,,,0.00,Wunderground v.1.15,2013-04-05 12:45:00,
2013-04-05 08:46:00,32.4,27.2,30.10,SW,220,0.0,0.0,81,0.00,,,0.00,Wunderground v.1.15,2013-04-05 12:46:00,
2013-04-05 08:47:00,32.6,27.4,30.10,SW,220,0.0,0.0,81,0.00,,,0.00,Wunderground v.1.15,2013-04-05 12:47:00,
2013-04-05 08:52:00,33.4,28.2,30.10,SW,220,0.0,0.0,81,0.00,,,0.00,Wunderground v.1.15,2013-04-05 12:52:00,
2013-04-05 08:54:00,33.9,28.7,30.10,SW,220,0.0,0.0,81,0.00,,,0.00,Wunderground v.1.15,2013-04-05 12:54:00,
2013-04-05 08:55:00,34.2,28.7,30.10,SW,220,0.0,0.0,80,0.00,,,0.00,Wunderground v.1.15,2013-04-05 12:55:00,
2013-04-05 09:00:00,35.8,29.9,30.10,SW,220,0.0,0.0,79,0.00,,,0.00,Wunderground v.1.15,2013-04-05 13:00:00,
2013-04-05 09:02:00,36.1,29.9,30.10,SW,220,0.0,0.0,78,0.00,,,0.00,Wunderground v.1.15,2013-04-05 13:02:00,
2013-04-05 09:03:00,36.3,29.8,30.10,SW,220,0.0,0.0,77,0.00,,,0.00,Wunderground v.1.15,2013-04-05 13:03:00,
2013-04-05 09:07:00,36.7,29.2,30.10,SW,220,0.0,0.0,74,0.00,,,0.00,Wunderground v.1.15,2013-04-05 13:07:00,
2013-04-05 09:08:00,36.8,29.3,30.10,SW,220,0.0,0.0,74,0.00,,,0.00,Wunderground v.1.15,2013-04-05 13:08:00,
2013-04-05 09:09:00,37.0,29.5,30.10,SW,220,0.0,0.0,74,0.00,,,0.00,Wunderground v.1.15,2013-04-05 13:09:00,
2013-04-05 09:14:00,37.7,29.5,30.10,SW,220,0.0,0.0,72,0.00,,,0.00,Wunderground v.1.15,2013-04-05 13:14:00,
2013-04-05 09:16:00,38.0,29.4,30.10,SW,220,0.0,0.0,71,0.00,,,0.00,Wunderground v.1.15,2013-04-05 13:16:00,
2013-04-05 09:17:00,38.1,29.5,30.10,SW,220,0.0,0.0,71,0.00,,,0.00,Wunderground v.1.15,2013-04-05 13:17:00,
2013-04-05 09:21:00,38.8,29.8,30.10,SW,220,0.0,0.0,70,0.00,,,0.00,Wunderground v.1.15,2013-04-05 13:21:00,
2013-04-05 09:22:00,39.0,30.0,30.10,SW,220,0.0,0.0,70,0.00,,,0.00,Wunderground v.1.15,2013-04-05 13:22:00,
2013-04-05 09:24:00,39.3,30.0,30.10,SW,220,0.0,0.0,69,0.00,,,0.00,Wunderground v.1.15,2013-04-05 13:24:00,
2013-04-05 09:26:00,39.7,30.4,30.10,SW,220,0.0,0.0,69,0.00,,,0.00,Wunderground v.1.15,2013-04-05 13:26:00,
2013-04-05 09:28:00,40.0,30.3,30.10,SW,222,0.0,0.0,68,0.00,,,0.00,Wunderground v.1.15,2013-04-05 13:28:00,
2013-04-05 09:29:00,40.3,30.6,30.10,SW,223,0.0,0.0,68,0.00,,,0.00,Wunderground v.1.15,2013-04-05 13:29:00,
2013-04-05 09:31:00,40.6,29.7,30.10,SW,230,0.0,0.0,65,0.00,,,0.00,Wunderground v.1.15,2013-04-05 13:31:00,
2013-04-05 09:36:00,42.0,28.7,30.10,West,281,1.0,3.0,59,0.00,,,0.00,Wunderground v.1.15,2013-04-05 13:36:00,
2013-04-05 09:37:00,42.1,28.4,30.10,West,281,1.0,3.0,58,0.00,,,0.00,Wunderground v.1.15,2013-04-05 13:37:00,
2013-04-05 09:41:00,43.1,28.5,30.10,West,275,1.0,3.0,56,0.00,,,0.00,Wunderground v.1.15,2013-04-05 13:41:00,
2013-04-05 09:42:00,43.3,27.8,30.10,West,274,2.0,3.0,54,0.00,,,0.00,Wunderground v.1.15,2013-04-05 13:42:00,
2013-04-05 09:43:00,43.6,28.0,30.10,West,272,2.0,3.0,54,0.00,,,0.00,Wunderground v.1.15,2013-04-05 13:43:00,
2013-04-05 09:45:00,43.8,28.2,30.10,West,272,2.0,3.0,54,0.00,,,0.00,Wunderground v.1.15,2013-04-05 13:45:00,
2013-04-05 09:48:00,44.6,29.0,30.10,WNW,287,1.0,3.0,54,0.00,,,0.00,Wunderground v.1.15,2013-04-05 13:48:00,
2013-04-05 09:49:00,44.6,28.0,30.10,West,278,2.0,5.0,52,0.00,,,0.00,Wunderground v.1.15,2013-04-05 13:49:00,
2013-04-05 09:51:00,45.0,28.4,30.10,WNW,298,2.0,3.0,52,0.00,,,0.00,Wunderground v.1.15,2013-04-05 13:51:00,
2013-04-05 09:52:00,45.1,27.6,30.10,WNW,296,2.0,3.0,50,0.00,,,0.00,Wunderground v.1.15,2013-04-05 13:52:00,
2013-04-05 09:54:00,45.4,27.8,30.10,NW,313,2.0,3.0,50,0.00,,,0.00,Wunderground v.1.15,2013-04-05 13:54:00,
2013-04-05 09:55:00,45.6,28.5,30.10,NW,320,2.0,3.0,51,0.00,,,0.00,Wunderground v.1.15,2013-04-05 13:55:00,
2013-04-05 09:57:00,45.9,28.3,30.10,NW,304,2.0,3.0,50,0.00,,,0.00,Wunderground v.1.15,2013-04-05 13:57:00,
2013-04-05 09:58:00,46.2,28.6,30.10,NW,304,2.0,3.0,50,0.00,,,0.00,Wunderground v.1.15,2013-04-05 13:58:00,
2013-04-05 10:00:00,46.5,27.8,30.09,NW,316,2.0,3.0,48,0.00,,,0.00,Wunderground v.1.15,2013-04-05 14:00:00,
2013-04-05 10:02:00,46.6,27.4,30.09,NW,316,1.0,3.0,47,0.00,,,0.00,Wunderground v.1.15,2013-04-05 14:02:00,
2013-04-05 10:04:00,46.9,27.7,30.09,NW,305,2.0,3.0,47,0.00,,,0.00,Wunderground v.1.15,2013-04-05 14:04:00,
2013-04-05 10:06:00,47.2,28.0,30.09,NW,318,2.0,3.0,47,0.00,,,0.00,Wunderground v.1.15,2013-04-05 14:06:00,
2013-04-05 10:09:00,47.5,27.7,30.09,NW,304,2.0,3.0,46,0.00,,,0.00,Wunderground v.1.15,2013-04-05 14:09:00,
2013-04-05 10:12:00,47.9,28.1,30.09,NW,319,2.0,5.0,46,0.00,,,0.00,Wunderground v.1.15,2013-04-05 14:12:00,
2013-04-05 10:17:00,48.4,27.5,30.09,WNW,301,3.0,5.0,44,0.00,,,0.00,Wunderground v.1.15,2013-04-05 14:17:00,
2013-04-05 10:18:00,48.4,26.3,30.09,West,272,3.0,5.0,42,0.00,,,0.00,Wunderground v.1.15,2013-04-05 14:18:00,
2013-04-05 10:19:00,48.4,26.3,30.09,West,278,3.0,5.0,42,0.00,,,0.00,Wunderground v.1.15,2013-04-05 14:19:00,
2013-04-05 10:23:00,48.7,27.2,30.09,West,281,3.0,5.0,43,0.00,,,0.00,Wunderground v.1.15,2013-04-05 14:23:00,
2013-04-05 10:25:00,48.8,27.8,30.09,NNW,339,3.0,5.0,44,0.00,,,0.00,Wunderground v.1.15,2013-04-05 14:25:00,
2013-04-05 10:28:00,48.8,27.3,30.09,North,359,3.0,5.0,43,0.00,,,0.00,Wunderground v.1.15,2013-04-05 14:28:00,
2013-04-05 10:30:00,49.0,28.0,30.10,North,0,3.0,4.0,44,0.00,,,0.00,Wunderground v.1.15,2013-04-05 14:30:00,
2013-04-05 10:31:00,49.1,27.5,30.10,North,6,3.0,5.0,43,0.00,,,0.00,Wunderground v.1.15,2013-04-05 14:31:00,
2013-04-05 10:36:00,49.6,28.0,30.10,NNW,340,2.0,5.0,43,0.00,,,0.00,Wunderground v.1.15,2013-04-05 14:36:00,
2013-04-05 10:37:00,49.6,27.4,30.10,NNW,333,2.0,5.0,42,0.00,,,0.00,Wunderground v.1.15,2013-04-05 14:37:00,
2013-04-05 10:39:00,49.7,28.1,30.10,NNW,340,3.0,6.0,43,0.00,,,0.00,Wunderground v.1.15,2013-04-05 14:39:00,
2013-04-05 10:42:00,50.0,28.4,30.10,North,359,2.0,6.0,43,0.00,,,0.00,Wunderground v.1.15,2013-04-05 14:42:00,
2013-04-05 10:44:00,50.1,28.4,30.10,NNE,21,3.0,6.0,43,0.00,,,0.00,Wunderground v.1.15,2013-04-05 14:44:00,
2013-04-05 10:45:00,50.3,28.6,30.10,NNW,346,3.0,6.0,43,0.00,,,0.00,Wunderground v.1.15,2013-04-05 14:45:00,
2013-04-05 10:50:00,50.7,28.4,30.10,North,0,3.0,3.0,42,0.00,,,0.00,Wunderground v.1.15,2013-04-05 14:50:00,
2013-04-05 10:51:00,50.7,28.4,30.10,North,0,3.0,3.0,42,0.00,,,0.00,Wunderground v.1.15,2013-04-05 14:51:00,
2013-04-05 10:53:00,50.9,28.6,30.10,NNW,330,3.0,4.0,42,0.00,,,0.00,Wunderground v.1.15,2013-04-05 14:53:00,
2013-04-05 10:57:00,51.3,29.0,30.10,North,6,3.0,6.0,42,0.00,,,0.00,Wunderground v.1.15,2013-04-05 14:57:00,
2013-04-05 10:58:00,51.3,29.0,30.10,North,0,3.0,6.0,42,0.00,,,0.00,Wunderground v.1.15,2013-04-05 14:58:00,
2013-04-05 10:59:00,51.5,29.1,30.10,NW,315,3.0,6.0,42,0.00,,,0.00,Wunderground v.1.15,2013-04-05 14:59:00,
2013-04-05 11:04:00,51.8,28.8,30.10,North,0,3.0,5.0,41,0.00,,,0.00,Wunderground v.1.15,2013-04-05 15:04:00,
2013-04-05 11:06:00,52.1,29.7,30.10,North,359,2.0,5.0,42,0.00,,,0.00,Wunderground v.1.15,2013-04-05 15:06:00,
2013-04-05 11:07:00,52.1,29.1,30.10,NNW,342,2.0,5.0,41,0.00,,,0.00,Wunderground v.1.15,2013-04-05 15:07:00,
2013-04-05 11:09:00,52.4,28.8,30.10,NNW,344,2.0,5.0,40,0.00,,,0.00,Wunderground v.1.15,2013-04-05 15:09:00,
2013-04-05 11:12:00,52.5,28.8,30.10,NNE,14,2.0,2.0,40,0.00,,,0.00,Wunderground v.1.15,2013-04-05 15:12:00,
2013-04-05 11:14:00,52.8,29.7,30.10,North,0,2.0,3.0,41,0.00,,,0.00,Wunderground v.1.15,2013-04-05 15:14:00,
2013-04-05 11:15:00,52.8,29.1,30.11,North,356,2.0,3.0,40,0.00,,,0.00,Wunderground v.1.15,2013-04-05 15:15:00,
2013-04-05 11:19:00,53.1,30.6,30.11,NNW,332,2.0,6.0,42,0.00,,,0.00,Wunderground v.1.15,2013-04-05 15:19:00,
2013-04-05 11:20:00,53.3,30.2,30.11,NNW,347,2.0,5.0,41,0.00,,,0.00,Wunderground v.1.15,2013-04-05 15:20:00,
2013-04-05 11:21:00,53.3,29.6,30.11,North,349,3.0,5.0,40,0.00,,,0.00,Wunderground v.1.15,2013-04-05 15:21:00,
2013-04-05 11:27:00,53.8,30.6,30.11,NNW,339,3.0,6.0,41,0.00,,,0.00,Wunderground v.1.15,2013-04-05 15:27:00,
2013-04-05 11:28:00,54.0,30.2,30.11,NNW,329,3.0,6.0,40,0.00,,,0.00,Wunderground v.1.15,2013-04-05 15:28:00,
2013-04-05 11:32:00,54.3,29.8,30.11,North,359,4.0,5.0,39,0.00,,,0.00,Wunderground v.1.15,2013-04-05 15:32:00,
2013-04-05 11:33:00,54.4,31.8,30.11,NNE,20,4.0,5.0,42,0.00,,,0.00,Wunderground v.1.15,2013-04-05 15:33:00,
2013-04-05 11:34:00,54.6,30.7,30.11,NNE,20,3.0,5.0,40,0.00,,,0.00,Wunderground v.1.15,2013-04-05 15:34:00,
2013-04-05 11:36:00,54.9,31.0,30.11,WNW,299,3.0,5.0,40,0.00,,,0.00,Wunderground v.1.15,2013-04-05 15:36:00,
2013-04-05 11:39:00,55.2,31.3,30.11,North,352,3.0,6.0,40,0.00,,,0.00,Wunderground v.1.15,2013-04-05 15:39:00,
2013-04-05 11:40:00,55.3,32.6,30.11,NNW,329,2.0,7.0,42,0.00,,,0.00,Wunderground v.1.15,2013-04-05 15:40:00,
2013-04-05 11:44:00,55.6,31.0,30.11,NNW,344,3.0,7.0,39,0.00,,,0.00,Wunderground v.1.15,2013-04-05 15:44:00,
2013-04-05 11:45:00,55.6,31.6,30.10,North,350,3.0,7.0,40,0.00,,,0.00,Wunderground v.1.15,2013-04-05 15:45:00,
2013-04-05 11:47:00,55.8,31.8,30.10,NNW,347,3.0,7.0,40,0.00,,,0.00,Wunderground v.1.15,2013-04-05 15:47:00,
2013-04-05 11:52:00,56.2,32.8,30.10,WNW,299,2.0,8.0,41,0.00,,,0.00,Wunderground v.1.15,2013-04-05 15:52:00,
2013-04-05 11:53:00,56.4,32.4,30.10,NNW,339,2.0,8.0,40,0.00,,,0.00,Wunderground v.1.15,2013-04-05 15:53:00,
2013-04-05 11:54:00,56.5,32.4,30.10,NW,319,2.0,8.0,40,0.00,,,0.00,Wunderground v.1.15,2013-04-05 15:54:00,
2013-04-05 11:59:00,57.0,34.1,30.10,WNW,289,4.0,8.0,42,0.00,,,0.00,Wunderground v.1.15,2013-04-05 15:59:00,
2013-04-05 12:00:00,57.0,32.3,30.10,West,281,4.0,4.0,39,0.00,,,0.00,Wunderground v.1.15,2013-04-05 16:00:00,
2013-04-05 12:01:00,57.0,32.3,30.10,NW,304,5.0,5.0,39,0.00,,,0.00,Wunderground v.1.15,2013-04-05 16:01:00,
2013-04-05 12:03:00,57.1,33.0,30.10,NNW,329,5.0,6.0,40,0.00,,,0.00,Wunderground v.1.15,2013-04-05 16:03:00,
2013-04-05 12:06:00,57.2,33.1,30.10,WNW,282,5.0,9.0,40,0.00,,,0.00,Wunderground v.1.15,2013-04-05 16:06:00,
2013-04-05 12:08:00,57.2,33.1,30.10,NW,305,5.0,9.0,40,0.00,,,0.00,Wunderground v.1.15,2013-04-05 16:08:00,
2013-04-05 12:09:00,57.4,34.5,30.10,NNW,333,6.0,9.0,42,0.00,,,0.00,Wunderground v.1.15,2013-04-05 16:09:00,
2013-04-05 12:13:00,57.5,32.7,30.10,NNW,333,6.0,6.0,39,0.00,,,0.00,Wunderground v.1.15,2013-04-05 16:13:00,
2013-04-05 12:14:00,57.5,32.7,30.10,NW,323,6.0,6.0,39,0.00,,,0.00,Wunderground v.1.15,2013-04-05 16:14:00,
2013-04-05 12:19:00,58.3,34.1,30.10,NW,311,4.0,6.0,40,0.00,,,0.00,Wunderground v.1.15,2013-04-05 16:19:00,
2013-04-05 12:20:00,58.5,34.2,30.10,NW,320,3.0,3.0,40,0.00,,,0.00,Wunderground v.1.15,2013-04-05 16:20:00,
2013-04-05 12:21:00,58.6,33.7,30.10,NNW,333,3.0,3.0,39,0.00,,,0.00,Wunderground v.1.15,2013-04-05 16:21:00,
2013-04-05 12:27:00,58.9,34.0,30.10,North,352,3.0,7.0,39,0.00,,,0.00,Wunderground v.1.15,2013-04-05 16:27:00,
2013-04-05 12:28:00,58.9,34.0,30.10,NNE,25,3.0,7.0,39,0.00,,,0.00,Wunderground v.1.15,2013-04-05 16:28:00,
2013-04-05 12:30:00,58.9,34.6,30.09,NW,318,3.0,3.0,40,0.00,,,0.00,Wunderground v.1.15,2013-04-05 16:30:00,
2013-04-05 12:31:00,58.9,34.6,30.09,North,359,3.0,4.0,40,0.00,,,0.00,Wunderground v.1.15,2013-04-05 16:31:00,
2013-04-05 12:33:00,59.2,35.5,30.09,NE,52,3.0,4.0,41,0.00,,,0.00,Wunderground v.1.15,2013-04-05 16:33:00,
2013-04-05 12:36:00,59.7,33.4,30.09,NE,52,3.0,5.0,37,0.00,,,0.00,Wunderground v.1.15,2013-04-05 16:36:00,
2013-04-05 12:37:00,59.7,33.4,30.09,ENE,58,3.0,5.0,37,0.00,,,0.00,Wunderground v.1.15,2013-04-05 16:37:00,
2013-04-05 12:39:00,60.0,33.6,30.09,North,0,2.0,5.0,37,0.00,,,0.00,Wunderground v.1.15,2013-04-05 16:39:00,
2013-04-05 12:41:00,60.1,33.7,30.09,NNW,339,2.0,2.0,37,0.00,,,0.00,Wunderground v.1.15,2013-04-05 16:41:00,
2013-04-05 12:43:00,60.3,33.2,30.09,NNE,21,2.0,2.0,36,0.00,,,0.00,Wunderground v.1.15,2013-04-05 16:43:00,
2013-04-05 12:46:00,60.6,32.8,30.09,WNW,296,1.0,5.0,35,0.00,,,0.00,Wunderground v.1.15,2013-04-05 16:46:00,
2013-04-05 12:48:00,60.7,32.9,30.09,North,10,1.0,5.0,35,0.00,,,0.00,Wunderground v.1.15,2013-04-05 16:48:00,
2013-04-05 12:49:00,60.9,33.7,30.09,NNE,13,1.0,6.0,36,0.00,,,0.00,Wunderground v.1.15,2013-04-05 16:49:00,
2013-04-05 12:50:00,60.7,32.1,30.09,North,6,2.0,3.0,34,0.00,,,0.00,Wunderground v.1.15,2013-04-05 16:50:00,
2013-04-05 12:54:00,60.9,32.3,30.09,ENE,64,2.0,5.0,34,0.00,,,0.00,Wunderground v.1.15,2013-04-05 16:54:00,
2013-04-05 12:56:00,61.0,33.1,30.09,North,356,2.0,5.0,35,0.00,,,0.00,Wunderground v.1.15,2013-04-05 16:56:00,
2013-04-05 12:57:00,61.0,33.8,30.09,North,349,2.0,6.0,36,0.00,,,0.00,Wunderground v.1.15,2013-04-05 16:57:00,
2013-04-05 12:58:00,61.0,33.1,30.09,North,352,3.0,9.0,35,0.00,,,0.00,Wunderground v.1.15,2013-04-05 16:58:00,
2013-04-05 13:01:00,60.9,32.3,30.09,North,359,3.0,6.0,34,0.00,,,0.00,Wunderground v.1.15,2013-04-05 17:01:00,
2013-04-05 13:02:00,60.9,34.4,30.09,WSW,256,3.0,7.0,37,0.00,,,0.00,Wunderground v.1.15,2013-04-05 17:02:00,
2013-04-05 13:05:00,60.7,32.1,30.09,NNW,347,4.0,9.0,34,0.00,,,0.00,Wunderground v.1.15,2013-04-05 17:05:00,
2013-04-05 13:09:00,60.9,31.6,30.09,NE,52,4.0,9.0,33,0.00,,,0.00,Wunderground v.1.15,2013-04-05 17:09:00,
2013-04-05 13:11:00,61.0,31.7,30.09,NNW,335,4.0,10.0,33,0.00,,,0.00,Wunderground v.1.15,2013-04-05 17:11:00,
2013-04-05 13:13:00,60.9,31.6,30.09,North,359,5.0,10.0,33,0.00,,,0.00,Wunderground v.1.15,2013-04-05 17:13:00,
2013-04-05 13:15:00,60.7,31.4,30.09,NNE,13,5.0,10.0,33,0.00,,,0.00,Wunderground v.1.15,2013-04-05 17:15:00,
2013-04-05 13:17:00,60.6,31.3,30.09,NNE,17,5.0,10.0,33,0.00,,,0.00,Wunderground v.1.15,2013-04-05 17:17:00,
2013-04-05 13:20:00,60.4,30.4,30.09,NNW,339,6.0,7.0,32,0.00,,,0.00,Wunderground v.1.15,2013-04-05 17:20:00,
2013-04-05 13:23:00,60.3,30.3,30.09,North,0,6.0,7.0,32,0.00,,,0.00,Wunderground v.1.15,2013-04-05 17:23:00,
2013-04-05 13:24:00,60.3,31.0,30.09,North,353,6.0,7.0,33,0.00,,,0.00,Wunderground v.1.15,2013-04-05 17:24:00,
2013-04-05 13:26:00,60.3,31.8,30.09,NNW,347,6.0,8.0,34,0.00,,,0.00,Wunderground v.1.15,2013-04-05 17:26:00,
2013-04-05 13:28:00,60.3,32.5,30.09,North,0,6.0,8.0,35,0.00,,,0.00,Wunderground v.1.15,2013-04-05 17:28:00,
2013-04-05 13:30:00,60.4,31.9,30.09,North,357,6.0,6.0,34,0.00,,,0.00,Wunderground v.1.15,2013-04-05 17:30:00,
2013-04-05 13:33:00,60.4,32.6,30.09,NNE,20,6.0,6.0,35,0.00,,,0.00,Wunderground v.1.15,2013-04-05 17:33:00,
2013-04-05 13:34:00,60.4,31.9,30.09,North,1,6.0,6.0,34,0.00,,,0.00,Wunderground v.1.15,2013-04-05 17:34:00,
2013-04-05 13:35:00,60.4,31.9,30.09,NW,320,6.0,10.0,34,0.00,,,0.00,Wunderground v.1.15,2013-04-05 17:35:00,
2013-04-05 13:36:00,60.4,31.9,30.09,NNW,347,6.0,10.0,34,0.00,,,0.00,Wunderground v.1.15,2013-04-05 17:36:00,
2013-04-05 13:40:00,60.7,31.4,30.09,NNW,342,6.0,7.0,33,0.00,,,0.00,Wunderground v.1.15,2013-04-05 17:40:00,
2013-04-05 13:41:00,60.7,31.4,30.09,NNW,340,6.0,12.0,33,0.00,,,0.00,Wunderground v.1.15,2013-04-05 17:41:00,
2013-04-05 13:42:00,60.9,30.8,30.09,North,359,6.0,12.0,32,0.00,,,0.00,Wunderground v.1.15,2013-04-05 17:42:00,
2013-04-05 13:43:00,60.9,30.8,30.09,NNE,21,6.0,12.0,32,0.00,,,0.00,Wunderground v.1.15,2013-04-05 17:43:00,
2013-04-05 13:47:00,61.0,30.9,30.09,NE,45,6.0,12.0,32,0.00,,,0.00,Wunderground v.1.15,2013-04-05 17:47:00,
2013-04-05 13:49:00,61.0,30.1,30.09,North,0,6.0,12.0,31,0.00,,,0.00,Wunderground v.1.15,2013-04-05 17:49:00,
2013-04-05 13:51:00,61.2,29.5,30.09,NW,316,6.0,14.0,30,0.00,,,0.00,Wunderground v.1.15,2013-04-05 17:51:00,
2013-04-05 13:56:00,61.4,29.7,30.09,WNW,299,6.0,14.0,30,0.00,,,0.00,Wunderground v.1.15,2013-04-05 17:56:00,
2013-04-05 13:57:00,61.4,31.3,30.09,North,0,6.0,14.0,32,0.00,,,0.00,Wunderground v.1.15,2013-04-05 17:57:00,
2013-04-05 13:58:00,61.4,29.7,30.09,NNW,346,6.0,14.0,30,0.00,,,0.00,Wunderground v.1.15,2013-04-05 17:58:00,
2013-04-05 13:59:00,61.4,29.7,30.09,North,352,6.0,14.0,30,0.00,,,0.00,Wunderground v.1.15,2013-04-05 17:59:00,
2013-04-05 14:02:00,61.7,29.9,30.08,NNE,27,5.0,12.0,30,0.00,,,0.00,Wunderground v.1.15,2013-04-05 18:02:00,
2013-04-05 14:05:00,61.7,29.9,30.08,NNE,17,6.0,12.0,30,0.00,,,0.00,Wunderground v.1.15,2013-04-05 18:05:00,
2013-04-05 14:07:00,61.7,30.7,30.08,NE,41,6.0,12.0,31,0.00,,,0.00,Wunderground v.1.15,2013-04-05 18:07:00,
2013-04-05 14:08:00,61.7,29.9,30.08,NNE,25,6.0,12.0,30,0.00,,,0.00,Wunderground v.1.15,2013-04-05 18:08:00,
2013-04-05 14:12:00,61.8,30.0,30.08,NE,48,5.0,6.0,30,0.00,,,0.00,Wunderground v.1.15,2013-04-05 18:12:00,
2013-04-05 14:13:00,62.0,30.2,30.08,North,0,5.0,6.0,30,0.00,,,0.00,Wunderground v.1.15,2013-04-05 18:13:00,
2013-04-05 14:15:00,62.1,31.9,30.09,North,0,5.0,10.0,32,0.00,,,0.00,Wunderground v.1.15,2013-04-05 18:15:00,
2013-04-05 14:18:00,62.0,30.2,30.09,NNW,347,5.0,10.0,30,0.00,,,0.00,Wunderground v.1.15,2013-04-05 18:18:00,
2013-04-05 14:19:00,62.0,29.3,30.09,North,357,6.0,10.0,29,0.00,,,0.00,Wunderground v.1.15,2013-04-05 18:19:00,
2013-04-05 14:21:00,61.8,30.0,30.09,NW,322,6.0,10.0,30,0.00,,,0.00,Wunderground v.1.15,2013-04-05 18:21:00,
2013-04-05 14:22:00,61.8,30.0,30.09,WSW,258,7.0,10.0,30,0.00,,,0.00,Wunderground v.1.15,2013-04-05 18:22:00,
2013-04-05 14:24:00,61.7,29.9,30.09,WNW,294,7.0,10.0,30,0.00,,,0.00,Wunderground v.1.15,2013-04-05 18:24:00,
2013-04-05 14:26:00,61.7,29.9,30.09,WSW,251,7.0,10.0,30,0.00,,,0.00,Wunderground v.1.15,2013-04-05 18:26:00,
2013-04-05 14:28:00,61.7,29.1,30.09,North,0,7.0,12.0,29,0.00,,,0.00,Wunderground v.1.15,2013-04-05 18:28:00,
2013-04-05 14:29:00,61.7,29.1,30.09,North,350,7.0,12.0,29,0.00,,,0.00,Wunderground v.1.15,2013-04-05 18:29:00,
2013-04-05 14:33:00,61.7,29.9,30.08,NW,308,7.0,12.0,30,0.00,,,0.00,Wunderground v.1.15,2013-04-05 18:33:00,
2013-04-05 14:35:00,61.7,29.9,30.08,WNW,302,8.0,12.0,30,0.00,,,0.00,Wunderground v.1.15,2013-04-05 18:35:00,
2013-04-05 14:37:00,61.5,28.9,30.08,North,353,8.0,12.0,29,0.00,,,0.00,Wunderground v.1.15,2013-04-05 18:37:00,
2013-04-05 14:39:00,61.5,28.1,30.08,North,356,8.0,12.0,28,0.00,,,0.00,Wunderground v.1.15,2013-04-05 18:39:00,
2013-04-05 14:41:00,61.5,29.7,30.08,North,352,8.0,8.0,30,0.00,,,0.00,Wunderground v.1.15,2013-04-05 18:41:00,
2013-04-05 14:42:00,61.7,29.9,30.08,NNW,346,8.0,8.0,30,0.00,,,0.00,Wunderground v.1.15,2013-04-05 18:42:00,
2013-04-05 14:46:00,61.7,29.9,30.08,NNW,333,7.0,13.0,30,0.00,,,0.00,Wunderground v.1.15,2013-04-05 18:46:00,
2013-04-05 14:47:00,61.7,29.1,30.08,North,0,8.0,13.0,29,0.00,,,0.00,Wunderground v.1.15,2013-04-05 18:47:00,
2013-04-05 14:48:00,61.7,29.9,30.08,North,0,7.0,13.0,30,0.00,,,0.00,Wunderground v.1.15,2013-04-05 18:48:00,
2013-04-05 14:49:00,61.7,29.9,30.08,North,8,7.0,13.0,30,0.00,,,0.00,Wunderground v.1.15,2013-04-05 18:49:00,
2013-04-05 14:52:00,61.8,29.2,30.08,North,349,7.0,10.0,29,0.00,,,0.00,Wunderground v.1.15,2013-04-05 18:52:00,
2013-04-05 14:54:00,61.8,30.0,30.08,NNW,332,7.0,10.0,30,0.00,,,0.00,Wunderground v.1.15,2013-04-05 18:54:00,
2013-04-05 14:55:00,61.8,30.8,30.08,NNW,343,7.0,10.0,31,0.00,,,0.00,Wunderground v.1.15,2013-04-05 18:55:00,
2013-04-05 14:57:00,62.0,29.3,30.08,NNW,343,6.0,10.0,29,0.00,,,0.00,Wunderground v.1.15,2013-04-05 18:57:00,
2013-04-05 14:58:00,62.0,30.2,30.08,NW,316,6.0,10.0,30,0.00,,,0.00,Wunderground v.1.15,2013-04-05 18:58:00,
2013-04-05 15:01:00,62.3,27.9,30.08,NW,326,6.0,8.0,27,0.00,,,0.00,Wunderground v.1.15,2013-04-05 19:01:00,
2013-04-05 15:03:00,62.3,28.7,30.08,NW,308,7.0,11.0,28,0.00,,,0.00,Wunderground v.1.15,2013-04-05 19:03:00,
2013-04-05 15:05:00,62.3,30.4,30.08,WNW,292,7.0,11.0,30,0.00,,,0.00,Wunderground v.1.15,2013-04-05 19:05:00,
2013-04-05 15:10:00,62.5,29.8,30.08,NW,319,7.0,7.0,29,0.00,,,0.00,Wunderground v.1.15,2013-04-05 19:10:00,
2013-04-05 15:11:00,62.5,28.9,30.08,North,350,7.0,7.0,28,0.00,,,0.00,Wunderground v.1.15,2013-04-05 19:11:00,
2013-04-05 15:12:00,62.5,28.9,30.08,NNW,337,7.0,7.0,28,0.00,,,0.00,Wunderground v.1.15,2013-04-05 19:12:00,
2013-04-05 15:17:00,62.6,29.0,30.08,NNW,329,6.0,7.0,28,0.00,,,0.00,Wunderground v.1.15,2013-04-05 19:17:00,
2013-04-05 15:18:00,62.6,27.2,30.08,NNW,330,6.0,7.0,26,0.00,,,0.00,Wunderground v.1.15,2013-04-05 19:18:00,
2013-04-05 15:22:00,62.8,26.4,30.08,WNW,291,7.0,11.0,25,0.00,,,0.00,Wunderground v.1.15,2013-04-05 19:22:00,
2013-04-05 15:23:00,62.8,26.4,30.08,WNW,301,7.0,11.0,25,0.00,,,0.00,Wunderground v.1.15,2013-04-05 19:23:00,
2013-04-05 15:25:00,62.9,28.4,30.08,North,0,7.0,11.0,27,0.00,,,0.00,Wunderground v.1.15,2013-04-05 19:25:00,
2013-04-05 15:28:00,62.9,24.5,30.08,ENE,68,7.0,12.0,23,0.00,,,0.00,Wunderground v.1.15,2013-04-05 19:28:00,
2013-04-05 15:29:00,62.9,23.4,30.08,NW,326,7.0,12.0,22,0.00,,,0.00,Wunderground v.1.15,2013-04-05 19:29:00,
2013-04-05 15:32:00,62.8,25.4,30.07,NNW,346,6.0,7.0,24,0.00,,,0.00,Wunderground v.1.15,2013-04-05 19:32:00,
2013-04-05 15:35:00,62.6,23.2,30.07,NNE,24,7.0,7.0,22,0.00,,,0.00,Wunderground v.1.15,2013-04-05 19:35:00,
2013-04-05 15:37:00,62.6,22.1,30.07,North,11,7.0,7.0,21,0.00,,,0.00,Wunderground v.1.15,2013-04-05 19:37:00,
2013-04-05 15:39:00,62.6,26.2,30.07,NNW,333,7.0,13.0,25,0.00,,,0.00,Wunderground v.1.15,2013-04-05 19:39:00,
2013-04-05 15:42:00,62.6,24.2,30.07,NNW,340,8.0,8.0,23,0.00,,,0.00,Wunderground v.1.15,2013-04-05 19:42:00,
2013-04-05 15:43:00,62.6,24.2,30.07,North,356,7.0,8.0,23,0.00,,,0.00,Wunderground v.1.15,2013-04-05 19:43:00,
2013-04-05 15:47:00,62.5,23.1,30.07,North,359,6.0,9.0,22,0.00,,,0.00,Wunderground v.1.15,2013-04-05 19:47:00,
2013-04-05 15:48:00,62.6,26.2,30.07,North,0,6.0,9.0,25,0.00,,,0.00,Wunderground v.1.15,2013-04-05 19:48:00,
2013-04-05 15:51:00,62.8,25.4,30.07,North,359,5.0,5.0,24,0.00,,,0.00,Wunderground v.1.15,2013-04-05 19:51:00,
2013-04-05 15:52:00,62.9,24.5,30.07,NE,51,5.0,5.0,23,0.00,,,0.00,Wunderground v.1.15,2013-04-05 19:52:00,
2013-04-05 15:57:00,63.1,24.7,30.07,NW,323,4.0,8.0,23,0.00,,,0.00,Wunderground v.1.15,2013-04-05 19:57:00,
2013-04-05 15:58:00,63.1,24.7,30.07,North,359,4.0,8.0,23,0.00,,,0.00,Wunderground v.1.15,2013-04-05 19:58:00,
2013-04-05 15:59:00,63.1,25.7,30.07,North,0,4.0,8.0,24,0.00,,,0.00,Wunderground v.1.15,2013-04-05 19:59:00,
2013-04-05 16:00:00,63.1,24.7,30.07,NNW,347,4.0,10.0,23,0.00,,,0.00,Wunderground v.1.15,2013-04-05 20:00:00,
2013-04-05 16:02:00,63.1,24.7,30.07,North,349,5.0,10.0,23,0.00,,,0.00,Wunderground v.1.15,2013-04-05 20:02:00,
2013-04-05 16:05:00,63.1,26.7,30.07,North,0,6.0,11.0,25,0.00,,,0.00,Wunderground v.1.15,2013-04-05 20:05:00,
2013-04-05 16:07:00,63.1,26.7,30.07,NNW,343,6.0,11.0,25,0.00,,,0.00,Wunderground v.1.15,2013-04-05 20:07:00,
2013-04-05 16:08:00,63.1,24.7,30.07,NNW,344,6.0,11.0,23,0.00,,,0.00,Wunderground v.1.15,2013-04-05 20:08:00,
2013-04-05 16:11:00,63.1,23.6,30.07,ENE,61,5.0,6.0,22,0.00,,,0.00,Wunderground v.1.15,2013-04-05 20:11:00,
2013-04-05 16:13:00,63.1,24.7,30.07,North,7,5.0,7.0,23,0.00,,,0.00,Wunderground v.1.15,2013-04-05 20:13:00,
2013-04-05 16:16:00,63.1,26.7,30.06,East,88,4.0,7.0,25,0.00,,,0.00,Wunderground v.1.15,2013-04-05 20:16:00,
2013-04-05 16:17:00,62.9,26.5,30.06,East,80,4.0,7.0,25,0.00,,,0.00,Wunderground v.1.15,2013-04-05 20:17:00,
2013-04-05 16:19:00,62.9,26.5,30.06,North,6,4.0,8.0,25,0.00,,,0.00,Wunderground v.1.15,2013-04-05 20:19:00,
2013-04-05 16:23:00,62.8,26.4,30.06,North,0,5.0,9.0,25,0.00,,,0.00,Wunderground v.1.15,2013-04-05 20:23:00,
2013-04-05 16:24:00,62.8,26.4,30.06,NNW,347,6.0,9.0,25,0.00,,,0.00,Wunderground v.1.15,2013-04-05 20:24:00,
2013-04-05 16:27:00,62.9,28.4,30.06,NNW,330,7.0,9.0,27,0.00,,,0.00,Wunderground v.1.15,2013-04-05 20:27:00,
2013-04-05 16:28:00,62.9,28.4,30.06,NW,319,7.0,9.0,27,0.00,,,0.00,Wunderground v.1.15,2013-04-05 20:28:00,
2013-04-05 16:30:00,62.9,26.5,30.06,NW,315,7.0,7.0,25,0.00,,,0.00,Wunderground v.1.15,2013-04-05 20:30:00,
2013-04-05 16:33:00,62.8,27.4,30.06,NNW,347,6.0,7.0,26,0.00,,,0.00,Wunderground v.1.15,2013-04-05 20:33:00,
2013-04-05 16:34:00,62.8,27.4,30.06,ENE,72,5.0,7.0,26,0.00,,,0.00,Wunderground v.1.15,2013-04-05 20:34:00,
2013-04-05 16:39:00,63.1,26.7,30.06,NNW,333,4.0,7.0,25,0.00,,,0.00,Wunderground v.1.15,2013-04-05 20:39:00,
2013-04-05 16:40:00,63.1,27.6,30.06,NNE,14,4.0,6.0,26,0.00,,,0.00,Wunderground v.1.15,2013-04-05 20:40:00,
2013-04-05 16:41:00,63.2,27.7,30.06,North,356,4.0,6.0,26,0.00,,,0.00,Wunderground v.1.15,2013-04-05 20:41:00,
2013-04-05 16:45:00,63.2,26.8,30.05,NW,320,6.0,11.0,25,0.00,,,0.00,Wunderground v.1.15,2013-04-05 20:45:00,
2013-04-05 16:46:00,63.1,26.7,30.05,NNW,342,6.0,11.0,25,0.00,,,0.00,Wunderground v.1.15,2013-04-05 20:46:00,
2013-04-05 16:48:00,62.9,26.5,30.05,North,0,6.0,11.0,25,0.00,,,0.00,Wunderground v.1.15,2013-04-05 20:48:00,
2013-04-05 16:51:00,62.9,26.5,30.05,North,0,6.0,6.0,25,0.00,,,0.00,Wunderground v.1.15,2013-04-05 20:51:00,
2013-04-05 16:52:00,62.9,26.5,30.05,NW,322,6.0,6.0,25,0.00,,,0.00,Wunderground v.1.15,2013-04-05 20:52:00,
2013-04-05 16:54:00,62.9,26.5,30.05,NW,309,6.0,8.0,25,0.00,,,0.00,Wunderground v.1.15,2013-04-05 20:54:00,
2013-04-05 16:55:00,62.8,26.4,30.05,NW,322,6.0,8.0,25,0.00,,,0.00,Wunderground v.1.15,2013-04-05 20:55:00,
2013-04-05 16:57:00,62.8,26.4,30.05,WNW,294,6.0,10.0,25,0.00,,,0.00,Wunderground v.1.15,2013-04-05 20:57:00,
2013-04-05 16:58:00,62.8,26.4,30.05,North,11,6.0,10.0,25,0.00,,,0.00,Wunderground v.1.15,2013-04-05 20:58:00,
2013-04-05 17:02:00,62.9,25.5,30.06,NNE,28,6.0,8.0,24,0.00,,,0.00,Wunderground v.1.15,2013-04-05 21:02:00,
2013-04-05 17:03:00,62.9,26.5,30.06,North,349,7.0,8.0,25,0.00,,,0.00,Wunderground v.1.15,2013-04-05 21:03:00,
2013-04-05 17:05:00,62.9,25.5,30.06,North,10,6.0,8.0,24,0.00,,,0.00,Wunderground v.1.15,2013-04-05 21:05:00,
2013-04-05 17:06:00,62.9,27.5,30.06,NNW,340,6.0,8.0,26,0.00,,,0.00,Wunderground v.1.15,2013-04-05 21:06:00,
2013-04-05 17:09:00,62.9,26.5,30.06,NNW,343,6.0,11.0,25,0.00,,,0.00,Wunderground v.1.15,2013-04-05 21:09:00,
2013-04-05 17:10:00,62.9,25.5,30.06,NNW,332,7.0,7.0,24,0.00,,,0.00,Wunderground v.1.15,2013-04-05 21:10:00,
2013-04-05 17:11:00,62.8,25.4,30.06,NNW,328,7.0,7.0,24,0.00,,,0.00,Wunderground v.1.15,2013-04-05 21:11:00,
2013-04-05 17:12:00,62.8,25.4,30.06,NW,315,7.0,7.0,24,0.00,,,0.00,Wunderground v.1.15,2013-04-05 21:12:00,
2013-04-05 17:16:00,62.6,25.3,30.05,NW,311,6.0,8.0,24,0.00,,,0.00,Wunderground v.1.15,2013-04-05 21:16:00,
2013-04-05 17:17:00,62.6,25.3,30.05,North,357,6.0,8.0,24,0.00,,,0.00,Wunderground v.1.15,2013-04-05 21:17:00,
2013-04-05 17:18:00,62.6,26.2,30.05,NE,45,6.0,8.0,25,0.00,,,0.00,Wunderground v.1.15,2013-04-05 21:18:00,
2013-04-05 17:23:00,62.8,25.4,30.05,North,357,5.0,7.0,24,0.00,,,0.00,Wunderground v.1.15,2013-04-05 21:23:00,
2013-04-05 17:24:00,62.8,24.4,30.05,North,0,5.0,7.0,23,0.00,,,0.00,Wunderground v.1.15,2013-04-05 21:24:00,
2013-04-05 17:29:00,62.8,24.4,30.05,NW,325,3.0,7.0,23,0.00,,,0.00,Wunderground v.1.15,2013-04-05 21:29:00,
2013-04-05 17:31:00,62.9,26.5,30.05,NW,304,3.0,3.0,25,0.00,,,0.00,Wunderground v.1.15,2013-04-05 21:31:00,
2013-04-05 17:32:00,63.1,26.7,30.05,NW,320,2.0,9.0,25,0.00,,,0.00,Wunderground v.1.15,2013-04-05 21:32:00,
2013-04-05 17:33:00,63.1,25.7,30.05,NNW,337,3.0,9.0,24,0.00,,,0.00,Wunderground v.1.15,2013-04-05 21:33:00,
2013-04-05 17:36:00,63.1,25.7,30.05,NE,40,3.0,9.0,24,0.00,,,0.00,Wunderground v.1.15,2013-04-05 21:36:00,
2013-04-05 17:39:00,63.1,25.7,30.05,North,11,3.0,9.0,24,0.00,,,0.00,Wunderground v.1.15,2013-04-05 21:39:00,
2013-04-05 17:42:00,63.2,25.8,30.05,ENE,59,4.0,4.0,24,0.00,,,0.00,Wunderground v.1.15,2013-04-05 21:42:00,
2013-04-05 17:43:00,63.2,26.8,30.05,NNW,339,3.0,4.0,25,0.00,,,0.00,Wunderground v.1.15,2013-04-05 21:43:00,
2013-04-05 17:45:00,63.4,26.9,30.05,North,1,3.0,4.0,25,0.00,,,0.00,Wunderground v.1.15,2013-04-05 21:45:00,
2013-04-05 17:47:00,63.4,24.9,30.05,NNW,343,3.0,6.0,23,0.00,,,0.00,Wunderground v.1.15,2013-04-05 21:47:00,
2013-04-05 17:49:00,63.2,24.7,30.05,North,357,4.0,10.0,23,0.00,,,0.00,Wunderground v.1.15,2013-04-05 21:49:00,
2013-04-05 17:52:00,63.1,25.7,30.05,North,353,5.0,9.0,24,0.00,,,0.00,Wunderground v.1.15,2013-04-05 21:52:00,
2013-04-05 17:55:00,63.1,26.7,30.05,North,0,6.0,9.0,25,0.00,,,0.00,Wunderground v.1.15,2013-04-05 21:55:00,
2013-04-05 17:56:00,63.1,26.7,30.05,NNW,337,5.0,9.0,25,0.00,,,0.00,Wunderground v.1.15,2013-04-05 21:56:00,
2013-04-05 17:58:00,63.1,26.7,30.05,North,354,5.0,9.0,25,0.00,,,0.00,Wunderground v.1.15,2013-04-05 21:58:00,
2013-04-05 17:59:00,63.1,25.7,30.05,NNW,344,5.0,9.0,24,0.00,,,0.00,Wunderground v.1.15,2013-04-05 21:59:00,
2013-04-05 18:00:00,63.1,25.7,30.05,NNW,336,5.0,6.0,24,0.00,,,0.00,Wunderground v.1.15,2013-04-05 22:00:00,
2013-04-05 18:05:00,62.9,26.5,30.05,North,349,5.0,7.0,25,0.00,,,0.00,Wunderground v.1.15,2013-04-05 22:05:00,
2013-04-05 18:06:00,62.9,24.5,30.05,North,359,5.0,7.0,23,0.00,,,0.00,Wunderground v.1.15,2013-04-05 22:06:00,
2013-04-05 18:08:00,62.8,25.4,30.05,NW,319,5.0,7.0,24,0.00,,,0.00,Wunderground v.1.15,2013-04-05 22:08:00,
2013-04-05 18:12:00,62.8,25.4,30.05,North,0,3.0,4.0,24,0.00,,,0.00,Wunderground v.1.15,2013-04-05 22:12:00,
2013-04-05 18:13:00,62.9,26.5,30.05,North,0,3.0,5.0,25,0.00,,,0.00,Wunderground v.1.15,2013-04-05 22:13:00,
2013-04-05 18:15:00,62.9,24.5,30.06,NE,40,3.0,8.0,23,0.00,,,0.00,Wunderground v.1.15,2013-04-05 22:15:00,
2013-04-05 18:17:00,62.9,25.5,30.06,North,0,3.0,8.0,24,0.00,,,0.00,Wunderground v.1.15,2013-04-05 22:17:00,
2013-04-05 18:18:00,62.9,24.5,30.06,NW,304,3.0,8.0,23,0.00,,,0.00,Wunderground v.1.15,2013-04-05 22:18:00,
2013-04-05 18:20:00,62.8,24.4,30.06,North,357,4.0,4.0,23,0.00,,,0.00,Wunderground v.1.15,2013-04-05 22:20:00,
2013-04-05 18:23:00,62.8,24.4,30.06,NNW,343,5.0,7.0,23,0.00,,,0.00,Wunderground v.1.15,2013-04-05 22:23:00,
2013-04-05 18:27:00,62.6,26.2,30.06,North,10,5.0,7.0,25,0.00,,,0.00,Wunderground v.1.15,2013-04-05 22:27:00,
2013-04-05 18:28:00,62.6,26.2,30.06,North,357,4.0,7.0,25,0.00,,,0.00,Wunderground v.1.15,2013-04-05 22:28:00,
2013-04-05 18:29:00,62.6,24.2,30.06,North,0,4.0,7.0,23,0.00,,,0.00,Wunderground v.1.15,2013-04-05 22:29:00,
2013-04-05 18:30:00,62.6,25.3,30.07,North,3,4.0,4.0,24,0.00,,,0.00,Wunderground v.1.15,2013-04-05 22:30:00,
2013-04-05 18:33:00,62.6,25.3,30.07,NNW,346,4.0,5.0,24,0.00,,,0.00,Wunderground v.1.15,2013-04-05 22:33:00,
2013-04-05 18:35:00,62.6,27.2,30.07,NW,322,3.0,6.0,26,0.00,,,0.00,Wunderground v.1.15,2013-04-05 22:35:00,
2013-04-05 18:36:00,62.6,27.2,30.07,NW,315,3.0,6.0,26,0.00,,,0.00,Wunderground v.1.15,2013-04-05 22:36:00,
2013-04-05 18:38:00,62.6,25.3,30.07,NNW,333,4.0,7.0,24,0.00,,,0.00,Wunderground v.1.15,2013-04-05 22:38:00,
2013-04-05 18:40:00,62.5,25.2,30.07,North,356,4.0,4.0,24,0.00,,,0.00,Wunderground v.1.15,2013-04-05 22:40:00,
2013-04-05 18:41:00,62.5,26.2,30.07,NNW,339,4.0,4.0,25,0.00,,,0.00,Wunderground v.1.15,2013-04-05 22:41:00,
2013-04-05 18:45:00,62.3,25.0,30.07,NNW,333,4.0,4.0,24,0.00,,,0.00,Wunderground v.1.15,2013-04-05 22:45:00,
2013-04-05 18:47:00,62.3,25.0,30.07,WNW,302,4.0,4.0,24,0.00,,,0.00,Wunderground v.1.15,2013-04-05 22:47:00,
2013-04-05 18:48:00,62.3,26.0,30.07,North,0,4.0,5.0,25,0.00,,,0.00,Wunderground v.1.15,2013-04-05 22:48:00,
2013-04-05 18:52:00,62.1,25.8,30.07,North,356,4.0,6.0,25,0.00,,,0.00,Wunderground v.1.15,2013-04-05 22:52:00,
2013-04-05 18:53:00,62.1,26.8,30.07,North,0,4.0,6.0,26,0.00,,,0.00,Wunderground v.1.15,2013-04-05 22:53:00,
2013-04-05 18:55:00,62.0,25.7,30.07,North,0,4.0,6.0,25,0.00,,,0.00,Wunderground v.1.15,2013-04-05 22:55:00,
2013-04-05 18:58:00,62.0,26.7,30.07,North,10,4.0,6.0,26,0.00,,,0.00,Wunderground v.1.15,2013-04-05 22:58:00,
2013-04-05 19:00:00,61.8,25.6,30.07,North,359,4.0,4.0,25,0.00,,,0.00,Wunderground v.1.15,2013-04-05 23:00:00,
2013-04-05 19:03:00,61.8,25.6,30.07,North,359,3.0,4.0,25,0.00,,,0.00,Wunderground v.1.15,2013-04-05 23:03:00,
2013-04-05 19:06:00,61.8,25.6,30.07,North,0,2.0,4.0,25,0.00,,,0.00,Wunderground v.1.15,2013-04-05 23:06:00,
2013-04-05 19:08:00,61.8,25.6,30.07,NNW,342,2.0,4.0,25,0.00,,,0.00,Wunderground v.1.15,2013-04-05 23:08:00,
2013-04-05 19:10:00,61.7,25.5,30.07,North,349,2.0,2.0,25,0.00,,,0.00,Wunderground v.1.15,2013-04-05 23:10:00,
2013-04-05 19:14:00,61.5,26.3,30.07,NNW,344,4.0,7.0,26,0.00,,,0.00,Wunderground v.1.15,2013-04-05 23:14:00,
2013-04-05 19:15:00,61.4,26.2,30.08,North,0,4.0,7.0,26,0.00,,,0.00,Wunderground v.1.15,2013-04-05 23:15:00,
2013-04-05 19:16:00,61.4,26.2,30.08,NNW,328,4.0,7.0,26,0.00,,,0.00,Wunderground v.1.15,2013-04-05 23:16:00,
2013-04-05 19:20:00,61.0,25.8,30.08,NNW,343,4.0,4.0,26,0.00,,,0.00,Wunderground v.1.15,2013-04-05 23:20:00,
2013-04-05 19:22:00,61.0,26.7,30.08,NNW,336,4.0,6.0,27,0.00,,,0.00,Wunderground v.1.15,2013-04-05 23:22:00,
2013-04-05 19:23:00,61.0,25.8,30.08,North,359,4.0,6.0,26,0.00,,,0.00,Wunderground v.1.15,2013-04-05 23:23:00,
2013-04-05 19:24:00,60.9,25.7,30.08,North,1,3.0,6.0,26,0.00,,,0.00,Wunderground v.1.15,2013-04-05 23:24:00,
2013-04-05 19:28:00,60.9,26.7,30.08,North,357,3.0,6.0,27,0.00,,,0.00,Wunderground v.1.15,2013-04-05 23:28:00,
2013-04-05 19:30:00,60.9,25.7,30.08,North,354,3.0,3.0,26,0.00,,,0.00,Wunderground v.1.15,2013-04-05 23:30:00,
2013-04-05 19:31:00,60.9,26.7,30.08,North,354,3.0,3.0,27,0.00,,,0.00,Wunderground v.1.15,2013-04-05 23:31:00,
2013-04-05 19:34:00,60.9,25.7,30.08,North,0,3.0,5.0,26,0.00,,,0.00,Wunderground v.1.15,2013-04-05 23:34:00,
2013-04-05 19:35:00,60.9,26.7,30.08,North,353,3.0,5.0,27,0.00,,,0.00,Wunderground v.1.15,2013-04-05 23:35:00,
2013-04-05 19:38:00,60.9,25.7,30.08,NNW,333,3.0,5.0,26,0.00,,,0.00,Wunderground v.1.15,2013-04-05 23:38:00,
2013-04-05 19:39:00,60.9,25.7,30.08,NNW,332,3.0,5.0,26,0.00,,,0.00,Wunderground v.1.15,2013-04-05 23:39:00,
2013-04-05 19:41:00,60.7,25.6,30.08,North,350,4.0,4.0,26,0.00,,,0.00,Wunderground v.1.15,2013-04-05 23:41:00,
2013-04-05 19:47:00,60.6,26.4,30.08,NNW,343,4.0,5.0,27,0.00,,,0.00,Wunderground v.1.15,2013-04-05 23:47:00,
2013-04-05 19:48:00,60.4,26.2,30.08,North,0,4.0,5.0,27,0.00,,,0.00,Wunderground v.1.15,2013-04-05 23:48:00,
2013-04-05 19:52:00,60.3,27.0,30.08,NNW,344,4.0,4.0,28,0.00,,,0.00,Wunderground v.1.15,2013-04-05 23:52:00,
2013-04-05 19:56:00,60.0,26.8,30.08,North,1,3.0,4.0,28,0.00,,,0.00,Wunderground v.1.15,2013-04-05 23:56:00,
2013-04-05 19:58:00,59.8,26.6,30.08,North,1,3.0,4.0,28,0.00,,,0.00,Wunderground v.1.15,2013-04-05 23:58:00,
2013-04-05 20:03:00,59.5,26.3,30.09,North,0,2.0,3.0,28,0.00,,,0.00,Wunderground v.1.15,2013-04-06 00:03:00,
2013-04-05 20:05:00,59.4,26.2,30.09,North,359,2.0,3.0,28,0.00,,,0.00,Wunderground v.1.15,2013-04-06 00:05:00,
2013-04-05 20:06:00,59.4,26.2,30.09,North,357,2.0,3.0,28,0.00,,,0.00,Wunderground v.1.15,2013-04-06 00:06:00,
2013-04-05 20:08:00,59.2,26.1,30.09,North,0,2.0,5.0,28,0.00,,,0.00,Wunderground v.1.15,2013-04-06 00:08:00,
2013-04-05 20:10:00,59.1,26.0,30.09,North,359,2.0,2.0,28,0.00,,,0.00,Wunderground v.1.15,2013-04-06 00:10:00,
2013-04-05 20:11:00,58.9,25.8,30.09,North,359,2.0,2.0,28,0.00,,,0.00,Wunderground v.1.15,2013-04-06 00:11:00,
2013-04-05 20:14:00,58.8,25.7,30.09,North,359,2.0,3.0,28,0.00,,,0.00,Wunderground v.1.15,2013-04-06 00:14:00,
2013-04-05 20:17:00,58.6,25.6,30.09,NNW,346,2.0,3.0,28,0.00,,,0.00,Wunderground v.1.15,2013-04-06 00:17:00,
2013-04-05 20:19:00,58.5,25.5,30.09,NNW,344,1.0,3.0,28,0.00,,,0.00,Wunderground v.1.15,2013-04-06 00:19:00,
2013-04-05 20:22:00,58.3,26.1,30.09,North,357,2.0,2.0,29,0.00,,,0.00,Wunderground v.1.15,2013-04-06 00:22:00,
2013-04-05 20:24:00,58.1,26.0,30.09,North,357,2.0,2.0,29,0.00,,,0.00,Wunderground v.1.15,2013-04-06 00:24:00,
2013-04-05 20:27:00,58.0,25.9,30.09,North,357,1.0,2.0,29,0.00,,,0.00,Wunderground v.1.15,2013-04-06 00:27:00,
2013-04-05 20:28:00,57.8,25.7,30.09,North,357,1.0,2.0,29,0.00,,,0.00,Wunderground v.1.15,2013-04-06 00:28:00,
2013-04-05 20:29:00,57.8,25.7,30.09,North,356,1.0,3.0,29,0.00,,,0.00,Wunderground v.1.15,2013-04-06 00:29:00,
2013-04-05 20:34:00,57.5,26.3,30.09,North,356,1.0,3.0,30,0.00,,,0.00,Wunderground v.1.15,2013-04-06 00:34:00,
2013-04-05 20:35:00,57.4,26.2,30.09,North,356,1.0,3.0,30,0.00,,,0.00,Wunderground v.1.15,2013-04-06 00:35:00,
2013-04-05 20:36:00,57.4,26.2,30.09,North,356,1.0,3.0,30,0.00,,,0.00,Wunderground v.1.15,2013-04-06 00:36:00,
2013-04-05 20:37:00,57.4,26.2,30.09,North,356,1.0,3.0,30,0.00,,,0.00,Wunderground v.1.15,2013-04-06 00:37:00,
2013-04-05 20:42:00,57.1,25.9,30.09,North,0,1.0,3.0,30,0.00,,,0.00,Wunderground v.1.15,2013-04-06 00:42:00,
2013-04-05 20:43:00,57.1,25.9,30.09,North,0,1.0,3.0,30,0.00,,,0.00,Wunderground v.1.15,2013-04-06 00:43:00,
2013-04-05 20:45:00,57.0,25.8,30.09,North,0,1.0,3.0,30,0.00,,,0.00,Wunderground v.1.15,2013-04-06 00:45:00,
2013-04-05 20:46:00,57.0,25.8,30.09,North,0,0.0,3.0,30,0.00,,,0.00,Wunderground v.1.15,2013-04-06 00:46:00,
2013-04-05 20:47:00,56.8,25.7,30.09,North,0,0.0,3.0,30,0.00,,,0.00,Wunderground v.1.15,2013-04-06 00:47:00,
2013-04-05 20:49:00,56.8,25.7,30.09,North,0,0.0,3.0,30,0.00,,,0.00,Wunderground v.1.15,2013-04-06 00:49:00,
2013-04-05 20:51:00,56.7,25.6,30.09,North,0,0.0,0.0,30,0.00,,,0.00,Wunderground v.1.15,2013-04-06 00:51:00,
2013-04-05 20:52:00,56.5,25.4,30.09,North,0,0.0,0.0,30,0.00,,,0.00,Wunderground v.1.15,2013-04-06 00:52:00,
2013-04-05 20:57:00,56.4,26.1,30.09,North,359,0.0,0.0,31,0.00,,,0.00,Wunderground v.1.15,2013-04-06 00:57:00,
2013-04-05 20:58:00,56.2,25.9,30.09,North,359,0.0,0.0,31,0.00,,,0.00,Wunderground v.1.15,2013-04-06 00:58:00,
2013-04-05 21:01:00,56.1,25.8,30.10,North,0,0.0,0.0,31,0.00,,,0.00,Wunderground v.1.15,2013-04-06 01:01:00,
2013-04-05 21:02:00,56.1,25.8,30.10,North,359,0.0,0.0,31,0.00,,,0.00,Wunderground v.1.15,2013-04-06 01:02:00,
2013-04-05 21:03:00,56.1,25.8,30.10,North,0,0.0,0.0,31,0.00,,,0.00,Wunderground v.1.15,2013-04-06 01:03:00,
2013-04-05 21:04:00,55.9,25.7,30.10,North,0,0.0,0.0,31,0.00,,,0.00,Wunderground v.1.15,2013-04-06 01:04:00,
2013-04-05 21:08:00,55.8,25.6,30.10,North,0,0.0,0.0,31,0.00,,,0.00,Wunderground v.1.15,2013-04-06 01:08:00,
2013-04-05 21:09:00,55.6,25.4,30.10,North,0,0.0,0.0,31,0.00,,,0.00,Wunderground v.1.15,2013-04-06 01:09:00,
2013-04-05 21:12:00,55.5,26.1,30.10,North,0,0.0,0.0,32,0.00,,,0.00,Wunderground v.1.15,2013-04-06 01:12:00,
2013-04-05 21:14:00,55.3,25.9,30.10,North,0,0.0,0.0,32,0.00,,,0.00,Wunderground v.1.15,2013-04-06 01:14:00,
2013-04-05 21:18:00,54.9,26.3,30.10,North,359,0.0,0.0,33,0.00,,,0.00,Wunderground v.1.15,2013-04-06 01:18:00,
2013-04-05 21:21:00,54.4,25.9,30.10,North,0,0.0,0.0,33,0.00,,,0.00,Wunderground v.1.15,2013-04-06 01:21:00,
2013-04-05 21:23:00,54.3,26.5,30.10,North,359,0.0,0.0,34,0.00,,,0.00,Wunderground v.1.15,2013-04-06 01:23:00,
2013-04-05 21:24:00,54.1,26.3,30.10,North,359,0.0,0.0,34,0.00,,,0.00,Wunderground v.1.15,2013-04-06 01:24:00,
2013-04-05 21:26:00,54.0,26.2,30.10,North,0,0.0,0.0,34,0.00,,,0.00,Wunderground v.1.15,2013-04-06 01:26:00,
2013-04-05 21:27:00,53.8,26.1,30.10,North,0,0.0,0.0,34,0.00,,,0.00,Wunderground v.1.15,2013-04-06 01:27:00,
2013-04-05 21:30:00,53.7,26.0,30.11,North,0,0.0,0.0,34,0.00,,,0.00,Wunderground v.1.15,2013-04-06 01:30:00,
2013-04-05 21:31:00,53.6,25.9,30.11,North,0,0.0,0.0,34,0.00,,,0.00,Wunderground v.1.15,2013-04-06 01:31:00,
2013-04-05 21:32:00,53.6,25.9,30.11,North,359,0.0,0.0,34,0.00,,,0.00,Wunderground v.1.15,2013-04-06 01:32:00,
2013-04-05 21:35:00,53.3,26.3,30.11,North,0,0.0,0.0,35,0.00,,,0.00,Wunderground v.1.15,2013-04-06 01:35:00,
2013-04-05 21:37:00,52.8,26.6,30.11,North,0,0.0,0.0,36,0.00,,,0.00,Wunderground v.1.15,2013-04-06 01:37:00,
2013-04-05 21:40:00,52.4,26.2,30.11,North,359,0.0,0.0,36,0.00,,,0.00,Wunderground v.1.15,2013-04-06 01:40:00,
2013-04-05 21:41:00,52.2,26.0,30.11,North,0,0.0,0.0,36,0.00,,,0.00,Wunderground v.1.15,2013-04-06 01:41:00,
2013-04-05 21:43:00,51.5,26.7,30.11,North,0,0.0,0.0,38,0.00,,,0.00,Wunderground v.1.15,2013-04-06 01:43:00,
2013-04-05 21:45:00,51.0,26.9,30.12,North,0,0.0,0.0,39,0.00,,,0.00,Wunderground v.1.15,2013-04-06 01:45:00,
2013-04-05 21:46:00,50.7,27.2,30.12,North,359,0.0,0.0,40,0.00,,,0.00,Wunderground v.1.15,2013-04-06 01:46:00,
2013-04-05 21:48:00,50.3,26.9,30.12,North,0,0.0,0.0,40,0.00,,,0.00,Wunderground v.1.15,2013-04-06 01:48:00,
2013-04-05 21:50:00,50.0,26.6,30.12,North,0,0.0,0.0,40,0.00,,,0.00,Wunderground v.1.15,2013-04-06 01:50:00,
2013-04-05 21:52:00,49.7,26.9,30.12,North,0,0.0,0.0,41,0.00,,,0.00,Wunderground v.1.15,2013-04-06 01:52:00,
2013-04-05 21:54:00,49.4,26.7,30.12,North,0,0.0,0.0,41,0.00,,,0.00,Wunderground v.1.15,2013-04-06 01:54:00,
2013-04-05 21:57:00,49.0,26.9,30.12,North,0,0.0,0.0,42,0.00,,,0.00,Wunderground v.1.15,2013-04-06 01:57:00,
2013-04-05 22:00:00,47.9,27.0,30.13,North,0,0.0,0.0,44,0.00,,,0.00,Wunderground v.1.15,2013-04-06 02:00:00,
2013-04-05 22:01:00,47.8,26.9,30.13,North,0,0.0,0.0,44,0.00,,,0.00,Wunderground v.1.15,2013-04-06 02:01:00,
2013-04-05 22:02:00,47.6,27.3,30.13,North,0,0.0,0.0,45,0.00,,,0.00,Wunderground v.1.15,2013-04-06 02:02:00,
2013-04-05 22:05:00,47.3,27.0,30.13,North,0,0.0,0.0,45,0.00,,,0.00,Wunderground v.1.15,2013-04-06 02:05:00,
2013-04-05 22:06:00,47.2,26.9,30.13,North,0,0.0,0.0,45,0.00,,,0.00,Wunderground v.1.15,2013-04-06 02:06:00,
2013-04-05 22:07:00,47.2,26.9,30.13,North,0,0.0,0.0,45,0.00,,,0.00,Wunderground v.1.15,2013-04-06 02:07:00,
2013-04-05 22:10:00,47.5,27.2,30.13,North,0,0.0,0.0,45,0.00,,,0.00,Wunderground v.1.15,2013-04-06 02:10:00,
2013-04-05 22:12:00,47.5,27.7,30.13,North,0,0.0,0.0,46,0.00,,,0.00,Wunderground v.1.15,2013-04-06 02:12:00,
2013-04-05 22:13:00,47.5,27.7,30.13,North,0,0.0,0.0,46,0.00,,,0.00,Wunderground v.1.15,2013-04-06 02:13:00,
2013-04-05 22:15:00,47.3,28.1,30.13,North,0,0.0,0.0,47,0.00,,,0.00,Wunderground v.1.15,2013-04-06 02:15:00,
2013-04-05 22:18:00,47.3,28.1,30.13,North,0,0.0,0.0,47,0.00,,,0.00,Wunderground v.1.15,2013-04-06 02:18:00,
2013-04-05 22:21:00,47.2,27.5,30.13,North,0,0.0,0.0,46,0.00,,,0.00,Wunderground v.1.15,2013-04-06 02:21:00,
2013-04-05 22:24:00,47.0,28.3,30.13,North,359,0.0,0.0,48,0.00,,,0.00,Wunderground v.1.15,2013-04-06 02:24:00,
2013-04-05 22:27:00,46.9,29.7,30.13,North,0,0.0,0.0,51,0.00,,,0.00,Wunderground v.1.15,2013-04-06 02:27:00,
2013-04-05 22:28:00,46.7,29.0,30.13,North,359,0.0,0.0,50,0.00,,,0.00,Wunderground v.1.15,2013-04-06 02:28:00,
2013-04-05 22:30:00,46.6,29.9,30.13,North,359,0.0,0.0,52,0.00,,,0.00,Wunderground v.1.15,2013-04-06 02:30:00,
2013-04-05 22:34:00,46.2,30.0,30.13,North,359,0.0,0.0,53,0.00,,,0.00,Wunderground v.1.15,2013-04-06 02:34:00,
2013-04-05 22:38:00,45.4,29.3,30.13,North,0,0.0,0.0,53,0.00,,,0.00,Wunderground v.1.15,2013-04-06 02:38:00,
2013-04-05 22:41:00,45.1,29.4,30.13,North,0,0.0,0.0,54,0.00,,,0.00,Wunderground v.1.15,2013-04-06 02:41:00,
2013-04-05 22:44:00,44.8,28.7,30.13,North,0,0.0,0.0,53,0.00,,,0.00,Wunderground v.1.15,2013-04-06 02:44:00,
2013-04-05 22:48:00,44.7,30.0,30.14,North,0,0.0,0.0,56,0.00,,,0.00,Wunderground v.1.15,2013-04-06 02:48:00,
2013-04-05 22:51:00,44.7,30.0,30.14,North,0,0.0,0.0,56,0.00,,,0.00,Wunderground v.1.15,2013-04-06 02:51:00,
2013-04-05 22:53:00,44.6,29.9,30.14,North,0,0.0,0.0,56,0.00,,,0.00,Wunderground v.1.15,2013-04-06 02:53:00,
2013-04-05 22:54:00,44.6,30.3,30.14,North,359,0.0,0.0,57,0.00,,,0.00,Wunderground v.1.15,2013-04-06 02:54:00,
2013-04-05 22:57:00,44.6,30.7,30.14,North,0,0.0,0.0,58,0.00,,,0.00,Wunderground v.1.15,2013-04-06 02:57:00,
2013-04-05 22:59:00,44.6,30.3,30.14,North,0,0.0,0.0,57,0.00,,,0.00,Wunderground v.1.15,2013-04-06 02:59:00,
2013-04-05 23:01:00,44.4,30.1,30.14,North,0,0.0,0.0,57,0.00,,,0.00,Wunderground v.1.15,2013-04-06 03:01:00,
2013-04-05 23:02:00,44.4,30.1,30.14,North,0,0.0,0.0,57,0.00,,,0.00,Wunderground v.1.15,2013-04-06 03:02:00,
2013-04-05 23:03:00,44.4,30.1,30.14,North,359,0.0,0.0,57,0.00,,,0.00,Wunderground v.1.15,2013-04-06 03:03:00,
2013-04-05 23:09:00,44.1,30.3,30.14,North,0,0.0,0.0,58,0.00,,,0.00,Wunderground v.1.15,2013-04-06 03:09:00,
2013-04-05 23:10:00,44.1,30.3,30.14,North,0,0.0,0.0,58,0.00,,,0.00,Wunderground v.1.15,2013-04-06 03:10:00,
2013-04-05 23:12:00,43.8,30.4,30.14,North,0,0.0,0.0,59,0.00,,,0.00,Wunderground v.1.15,2013-04-06 03:12:00,
2013-04-05 23:15:00,43.6,30.2,30.13,North,0,0.0,0.0,59,0.00,,,0.00,Wunderground v.1.15,2013-04-06 03:15:00,
2013-04-05 23:17:00,43.3,29.9,30.13,North,0,0.0,0.0,59,0.00,,,0.00,Wunderground v.1.15,2013-04-06 03:17:00,
2013-04-05 23:21:00,43.1,30.1,30.13,North,0,0.0,0.0,60,0.00,,,0.00,Wunderground v.1.15,2013-04-06 03:21:00,
2013-04-05 23:22:00,43.1,30.1,30.13,North,0,0.0,0.0,60,0.00,,,0.00,Wunderground v.1.15,2013-04-06 03:22:00,
2013-04-05 23:23:00,43.1,29.7,30.13,North,0,0.0,0.0,59,0.00,,,0.00,Wunderground v.1.15,2013-04-06 03:23:00,
2013-04-05 23:24:00,43.1,29.7,30.13,North,0,0.0,0.0,59,0.00,,,0.00,Wunderground v.1.15,2013-04-06 03:24:00,
2013-04-05 23:27:00,43.1,29.7,30.13,North,359,0.0,0.0,59,0.00,,,0.00,Wunderground v.1.15,2013-04-06 03:27:00,
2013-04-05 23:28:00,43.1,29.7,30.13,North,359,0.0,0.0,59,0.00,,,0.00,Wunderground v.1.15,2013-04-06 03:28:00,
2013-04-05 23:32:00,43.0,29.2,30.13,North,359,0.0,0.0,58,0.00,,,0.00,Wunderground v.1.15,2013-04-06 03:32:00,
2013-04-05 23:33:00,43.0,29.2,30.13,North,359,0.0,0.0,58,0.00,,,0.00,Wunderground v.1.15,2013-04-06 03:33:00,
2013-04-05 23:34:00,43.0,29.2,30.13,North,359,0.0,0.0,58,0.00,,,0.00,Wunderground v.1.15,2013-04-06 03:34:00,
2013-04-05 23:37:00,42.8,29.5,30.13,North,0,0.0,0.0,59,0.00,,,0.00,Wunderground v.1.15,2013-04-06 03:37:00,
2013-04-05 23:38:00,42.7,29.8,30.13,North,0,0.0,0.0,60,0.00,,,0.00,Wunderground v.1.15,2013-04-06 03:38:00,
2013-04-05 23:40:00,42.6,29.3,30.13,North,0,0.0,0.0,59,0.00,,,0.00,Wunderground v.1.15,2013-04-06 03:40:00,
2013-04-05 23:41:00,42.6,28.8,30.13,North,0,0.0,0.0,58,0.00,,,0.00,Wunderground v.1.15,2013-04-06 03:41:00,
2013-04-05 23:45:00,42.3,28.6,30.13,North,0,0.0,0.0,58,0.00,,,0.00,Wunderground v.1.15,2013-04-06 03:45:00,
2013-04-05 23:47:00,42.3,28.1,30.13,North,0,0.0,0.0,57,0.00,,,0.00,Wunderground v.1.15,2013-04-06 03:47:00,
2013-04-05 23:48:00,42.3,28.1,30.13,North,0,0.0,0.0,57,0.00,,,0.00,Wunderground v.1.15,2013-04-06 03:48:00,
2013-04-05 23:49:00,42.3,28.1,30.13,North,0,0.0,0.0,57,0.00,,,0.00,Wunderground v.1.15,2013-04-06 03:49:00,
2013-04-05 23:54:00,42.3,29.4,30.13,North,359,0.0,0.0,60,0.00,,,0.00,Wunderground v.1.15,2013-04-06 03:54:00,
2013-04-05 23:55:00,42.3,29.8,30.13,North,359,0.0,0.0,61,0.00,,,0.00,Wunderground v.1.15,2013-04-06 03:55:00,
2013-04-05 23:56:00,42.3,30.2,30.13,North,359,0.0,0.0,62,0.00,,,0.00,Wunderground v.1.15,2013-04-06 03:56:00,
2013-04-05 23:59:00,42.1,30.4,30.13,North,359,0.0,0.0,63,0.00,,,0.00,Wunderground v.1.15,2013-04-06 03:59:00,